| time (UTC) | temp C | wind direction | speed KPH | gust KPH | rain 1hr cm | rain 24hr cm | rain mn cm | humidity % | barometer mb |
| 20260509090636 | 11 | 207 | 0.0 | 0.0 | 0.00 | 0.00 | 0.00 | 59 | 1002.8 |
| 20260509090555 | 11 | 207 | 0.0 | 0.0 | 0.00 | 0.00 | 0.00 | 59 | 1002.8 |
| 20260509090435 | 11 | 207 | 0.0 | 0.0 | 0.00 | 0.00 | 0.00 | 59 | 1002.6 |
| 20260509090235 | 11 | 207 | 0.0 | 1.6 | 0.00 | 0.00 | 0.00 | 59 | 1002.7 |
| 20260509090033 | 11 | 207 | 0.0 | 1.6 | 0.00 | 0.00 | 0.00 | 58 | 1002.7 |
| 20260509085833 | 11 | 207 | 0.0 | 3.2 | 0.00 | 0.00 | 0.00 | 58 | 1002.7 |
| 20260509085730 | 11 | 207 | 0.0 | 4.8 | 0.00 | 0.00 | 0.00 | 57 | 1002.6 |
| 20260509085546 | 11 | 207 | 0.0 | 4.8 | 0.00 | 0.00 | 0.00 | 57 | 1002.7 |
| 20260509085433 | 11 | 207 | 0.0 | 4.8 | 0.00 | 0.00 | 0.00 | 57 | 1002.8 |
| 20260509085231 | 11 | 207 | 0.0 | 4.8 | 0.00 | 0.00 | 0.00 | 57 | 1002.9 |
| 20260509085032 | 11 | 207 | 0.0 | 4.8 | 0.00 | 0.00 | 0.00 | 56 | 1002.7 |
| 20260509084830 | 11 | 207 | 0.0 | 4.8 | 0.00 | 0.00 | 0.00 | 56 | 1002.6 |
| 20260509084825 | 11 | 206 | 0.0 | 4.8 | 0.00 | 0.00 | 0.00 | 57 | 1002.6 |
| 20260509084800 | 11 | 206 | 0.0 | 4.8 | 0.00 | 0.00 | 0.00 | 56 | 1002.7 |
| 20260509084430 | 11 | 203 | 0.0 | 6.4 | 0.00 | 0.00 | 0.00 | 56 | 1002.7 |
| 20260509084228 | 11 | 173 | 0.0 | 6.4 | 0.00 | 0.00 | 0.00 | 56 | 1002.7 |
| 20260509084127 | 11 | 138 | 0.0 | 9.7 | 0.00 | 0.00 | 0.00 | 56 | 1002.5 |
| 20260509084030 | 11 | 138 | 0.0 | 9.7 | 0.00 | 0.00 | 0.00 | 56 | 1002.5 |
| 20260509083828 | 11 | 94 | 0.0 | 9.7 | 0.00 | 0.00 | 0.00 | 57 | 1002.8 |
| 20260509083823 | 11 | 180 | 0.0 | 9.7 | 0.00 | 0.00 | 0.00 | 56 | 1002.6 |
| 20260509083757 | 11 | 180 | 0.0 | 9.7 | 0.00 | 0.00 | 0.00 | 56 | 1002.6 |
| 20260509083427 | 11 | 148 | 0.0 | 9.7 | 0.00 | 0.00 | 0.00 | 55 | 1002.7 |
| 20260509083225 | 11 | 250 | 0.0 | 9.7 | 0.00 | 0.00 | 0.00 | 57 | 1002.6 |
| 20260509083024 | 11 | 288 | 0.0 | 9.7 | 0.00 | 0.00 | 0.00 | 55 | 1002.6 |
| 20260509082830 | 11 | 257 | 0.0 | 9.7 | 0.00 | 0.00 | 0.00 | 54 | 1001.9 |
| 20260509082810 | 11 | 245 | 0.0 | 9.7 | 0.00 | 0.00 | 0.00 | 55 | 1001.8 |
| 20260509082806 | 11 | 245 | 0.0 | 9.7 | 0.00 | 0.00 | 0.00 | 55 | 1001.8 |
| 20260509082751 | 11 | 245 | 0.0 | 9.7 | 0.00 | 0.00 | 0.00 | 55 | 1001.9 |
| 20260509082223 | 11 | 207 | 0.0 | 9.7 | 0.00 | 0.00 | 0.00 | 56 | 1001.6 |
| 20260509082019 | 11 | 213 | 0.0 | 6.4 | 0.00 | 0.00 | 0.00 | 57 | 1001.7 |
| 20260509081819 | 11 | 213 | 0.0 | 6.4 | 0.00 | 0.00 | 0.00 | 58 | 1001.7 |
| 20260509081615 | 11 | 209 | 0.0 | 6.4 | 0.00 | 0.00 | 0.00 | 58 | 1001.7 |
| 20260509081529 | 10 | 220 | 0.0 | 4.8 | 0.00 | 0.00 | 0.00 | 59 | 1001.7 |
| 20260509081416 | 10 | 227 | 0.0 | 4.8 | 0.00 | 0.00 | 0.00 | 59 | 1001.7 |
| 20260509081214 | 10 | 228 | 0.0 | 4.8 | 0.00 | 0.00 | 0.00 | 60 | 1001.7 |
| 20260509081029 | 10 | 228 | 0.0 | 4.8 | 0.00 | 0.00 | 0.00 | 61 | 1001.7 |
| 20260509081013 | 10 | 228 | 0.0 | 4.8 | 0.00 | 0.00 | 0.00 | 62 | 1001.6 |
| 20260509080846 | 10 | 223 | 0.0 | 4.8 | 0.00 | 0.00 | 0.00 | 64 | 1001.6 |
| 20260509080826 | 9 | 285 | 0.0 | 4.8 | 0.00 | 0.00 | 0.00 | 64 | 1001.6 |
| 20260509080815 | 10 | 223 | 0.0 | 4.8 | 0.00 | 0.00 | 0.00 | 61 | 1001.7 |
| 20260509080405 | 9 | 285 | 0.0 | 4.8 | 0.00 | 0.00 | 0.00 | 65 | 1001.6 |
| 20260509080203 | 9 | 309 | 0.0 | 0.0 | 0.00 | 0.00 | 0.00 | 67 | 1001.6 |
| 20260509080026 | 9 | 309 | 0.0 | 1.6 | 0.00 | 0.00 | 0.00 | 68 | 1001.6 |
| 20260509080003 | 8 | 309 | 0.0 | 1.6 | 0.00 | 0.00 | 0.00 | 68 | 1001.6 |
| 20260509075824 | 8 | 309 | 0.0 | 1.6 | 0.00 | 0.00 | 0.00 | 70 | 1001.7 |
| 20260509075814 | 8 | 309 | 0.0 | 1.6 | 0.00 | 0.00 | 0.00 | 68 | 1001.6 |
| 20260509075748 | 8 | 309 | 0.0 | 1.6 | 0.00 | 0.00 | 0.00 | 69 | 1001.7 |
| 20260509075402 | 8 | 309 | 0.0 | 1.6 | 0.00 | 0.00 | 0.00 | 70 | 1001.7 |
| 20260509075137 | 8 | 309 | 0.0 | 1.6 | 0.00 | 0.00 | 0.00 | 69 | 1001.7 |
| 20260509075037 | 8 | 309 | 0.0 | 1.6 | 0.00 | 0.00 | 0.00 | 69 | 1001.6 |
| 20260509075025 | 8 | 309 | 0.0 | 1.6 | 0.00 | 0.00 | 0.00 | 69 | 1001.6 |
| 20260509074821 | 8 | 309 | 0.0 | 1.6 | 0.00 | 0.00 | 0.00 | 69 | 1001.5 |
| 20260509074808 | 8 | 309 | 0.0 | 1.6 | 0.00 | 0.00 | 0.00 | 69 | 1001.5 |
| 20260509074738 | 8 | 309 | 0.0 | 1.6 | 0.00 | 0.00 | 0.00 | 69 | 1001.5 |
| 20260509074336 | 8 | 309 | 0.0 | 0.0 | 0.00 | 0.00 | 0.00 | 69 | 1001.4 |
| 20260509074133 | 8 | 309 | 0.0 | 0.0 | 0.00 | 0.00 | 0.00 | 69 | 1001.5 |
| 20260509074023 | 8 | 309 | 0.0 | 0.0 | 0.00 | 0.00 | 0.00 | 69 | 1001.5 |
| 20260509073931 | 8 | 309 | 0.0 | 0.0 | 0.00 | 0.00 | 0.00 | 69 | 1001.5 |
| 20260509073731 | 8 | 309 | 0.0 | 0.0 | 0.00 | 0.00 | 0.00 | 69 | 1001.5 |
| 20260509073524 | 8 | 309 | 0.0 | 0.0 | 0.00 | 0.00 | 0.00 | 69 | 1001.5 |
| 20260509073333 | 8 | 309 | 0.0 | 0.0 | 0.00 | 0.00 | 0.00 | 68 | 1001.5 |
| 20260509073133 | 8 | 309 | 0.0 | 0.0 | 0.00 | 0.00 | 0.00 | 68 | 1001.5 |
| 20260509073022 | 8 | 309 | 0.0 | 0.0 | 0.00 | 0.00 | 0.00 | 68 | 1001.4 |
| 20260509072934 | 8 | 309 | 0.0 | 0.0 | 0.00 | 0.00 | 0.00 | 68 | 1001.6 |
| 20260509072821 | 8 | 309 | 0.0 | 0.0 | 0.00 | 0.00 | 0.00 | 67 | 1001.6 |
| 20260509072811 | 8 | 309 | 0.0 | 0.0 | 0.00 | 0.00 | 0.00 | 68 | 1001.6 |
| 20260509072739 | 8 | 309 | 0.0 | 0.0 | 0.00 | 0.00 | 0.00 | 67 | 1001.6 |
| 20260509072427 | 8 | 309 | 0.0 | 0.0 | 0.00 | 0.00 | 0.00 | 67 | 1001.7 |
| 20260509072129 | 8 | 309 | 0.0 | 0.0 | 0.00 | 0.00 | 0.00 | 67 | 1001.7 |
| 20260509072032 | 8 | 309 | 0.0 | 0.0 | 0.00 | 0.00 | 0.00 | 66 | 1001.8 |
| 20260509071930 | 8 | 309 | 0.0 | 0.0 | 0.00 | 0.00 | 0.00 | 66 | 1001.7 |
| 20260509071829 | 8 | 309 | 0.0 | 0.0 | 0.00 | 0.00 | 0.00 | 66 | 1001.8 |
| 20260509071813 | 8 | 309 | 0.0 | 0.0 | 0.00 | 0.00 | 0.00 | 66 | 1001.7 |
| 20260509071741 | 8 | 309 | 0.0 | 0.0 | 0.00 | 0.00 | 0.00 | 66 | 1001.8 |
| 20260509071326 | 8 | 309 | 0.0 | 0.0 | 0.00 | 0.00 | 0.00 | 66 | 1001.9 |
| 20260509071126 | 8 | 309 | 0.0 | 0.0 | 0.00 | 0.00 | 0.00 | 66 | 1001.8 |
| 20260509071019 | 8 | 309 | 0.0 | 0.0 | 0.00 | 0.00 | 0.00 | 65 | 1001.9 |
| 20260509070927 | 8 | 309 | 0.0 | 0.0 | 0.00 | 0.00 | 0.00 | 65 | 1001.9 |
| 20260509070910 | 8 | 309 | 0.0 | 0.0 | 0.00 | 0.00 | 0.00 | 64 | 1001.9 |
| 20260509070818 | 8 | 309 | 0.0 | 0.0 | 0.00 | 0.00 | 0.00 | 64 | 1001.8 |
| 20260509070738 | 8 | 309 | 0.0 | 0.0 | 0.00 | 0.00 | 0.00 | 64 | 1001.8 |
| 20260509070326 | 8 | 309 | 0.0 | 0.0 | 0.00 | 0.00 | 0.00 | 63 | 1001.9 |
| 20260509070126 | 8 | 309 | 0.0 | 0.0 | 0.00 | 0.00 | 0.00 | 63 | 1001.7 |
| 20260509070051 | 8 | 309 | 0.0 | 0.0 | 0.00 | 0.00 | 0.00 | 63 | 1001.8 |
| 20260509065941 | 8 | 309 | 0.0 | 1.6 | 0.00 | 0.00 | 0.00 | 63 | 1001.8 |
| 20260509065728 | 8 | 309 | 0.0 | 1.6 | 0.00 | 0.00 | 0.00 | 65 | 1001.9 |
| 20260509065530 | 8 | 309 | 0.0 | 3.2 | 0.00 | 0.00 | 0.00 | 65 | 1002.0 |
| 20260509065520 | 8 | 309 | 0.0 | 3.2 | 0.00 | 0.00 | 0.00 | 65 | 1001.9 |
| 20260509065327 | 8 | 309 | 0.0 | 3.2 | 0.00 | 0.00 | 0.00 | 64 | 1002.0 |
| 20260509065221 | 8 | 309 | 0.0 | 3.2 | 0.00 | 0.00 | 0.00 | 64 | 1001.9 |
| 20260509065019 | 8 | 309 | 0.0 | 3.2 | 0.00 | 0.00 | 0.00 | 64 | 1002.0 |
| 20260509064927 | 8 | 309 | 0.0 | 3.2 | 0.00 | 0.00 | 0.00 | 64 | 1002.0 |
| 20260509064726 | 8 | 309 | 0.0 | 3.2 | 0.00 | 0.00 | 0.00 | 64 | 1002.0 |
| 20260509064518 | 8 | 309 | 0.0 | 1.6 | 0.00 | 0.00 | 0.00 | 64 | 1002.0 |
| 20260509064326 | 8 | 309 | 0.0 | 0.0 | 0.00 | 0.00 | 0.00 | 64 | 1002.1 |
| 20260509064126 | 8 | 309 | 0.0 | 0.0 | 0.00 | 0.00 | 0.00 | 63 | 1002.2 |
| 20260509064015 | 8 | 309 | 0.0 | 0.0 | 0.00 | 0.00 | 0.00 | 63 | 1002.1 |
| 20260509063927 | 8 | 309 | 0.0 | 0.0 | 0.00 | 0.00 | 0.00 | 63 | 1002.1 |
| 20260509063726 | 8 | 309 | 0.0 | 0.0 | 0.00 | 0.00 | 0.00 | 63 | 1002.2 |
| 20260509063628 | 8 | 309 | 0.0 | 0.0 | 0.00 | 0.00 | 0.00 | 63 | 1002.3 |
| 20260509063515 | 8 | 309 | 0.0 | 0.0 | 0.00 | 0.00 | 0.00 | 63 | 1002.3 |
| 20260509063327 | 8 | 309 | 0.0 | 0.0 | 0.00 | 0.00 | 0.00 | 61 | 1002.2 |
| 20260509063126 | 8 | 309 | 0.0 | 0.0 | 0.00 | 0.00 | 0.00 | 62 | 1002.4 |
| 20260509063013 | 8 | 309 | 0.0 | 0.0 | 0.00 | 0.00 | 0.00 | 63 | 1002.3 |
| 20260509062929 | 8 | 309 | 0.0 | 0.0 | 0.00 | 0.00 | 0.00 | 64 | 1002.3 |
| 20260509062726 | 8 | 309 | 0.0 | 0.0 | 0.00 | 0.00 | 0.00 | 66 | 1002.3 |
| 20260509062528 | 8 | 309 | 0.0 | 0.0 | 0.00 | 0.00 | 0.00 | 65 | 1002.3 |
| 20260509062514 | 8 | 309 | 0.0 | 0.0 | 0.00 | 0.00 | 0.00 | 64 | 1002.2 |
| 20260509062326 | 8 | 309 | 0.0 | 0.0 | 0.00 | 0.00 | 0.00 | 63 | 1002.2 |
| 20260509062126 | 8 | 309 | 0.0 | 0.0 | 0.00 | 0.00 | 0.00 | 62 | 1002.2 |
| 20260509062032 | 8 | 309 | 0.0 | 0.0 | 0.00 | 0.00 | 0.00 | 64 | 1002.1 |
| 20260509062014 | 8 | 309 | 0.0 | 0.0 | 0.00 | 0.00 | 0.00 | 63 | 1002.1 |
| 20260509061726 | 8 | 309 | 0.0 | 0.0 | 0.00 | 0.00 | 0.00 | 64 | 1002.2 |
| 20260509061528 | 8 | 309 | 0.0 | 0.0 | 0.00 | 0.00 | 0.00 | 64 | 1002.3 |
| 20260509061512 | 9 | 309 | 0.0 | 0.0 | 0.00 | 0.00 | 0.00 | 64 | 1002.3 |
| 20260509061326 | 9 | 309 | 0.0 | 0.0 | 0.00 | 0.00 | 0.00 | 62 | 1002.3 |
| 20260509061126 | 9 | 309 | 0.0 | 0.0 | 0.00 | 0.00 | 0.00 | 62 | 1002.3 |
| 20260509061011 | 9 | 309 | 0.0 | 0.0 | 0.00 | 0.00 | 0.00 | 62 | 1002.3 |
| 20260509060927 | 9 | 309 | 0.0 | 0.0 | 0.00 | 0.00 | 0.00 | 62 | 1002.3 |
| 20260509060727 | 9 | 309 | 0.0 | 0.0 | 0.00 | 0.00 | 0.00 | 63 | 1002.4 |
| 20260509060511 | 9 | 309 | 0.0 | 0.0 | 0.00 | 0.00 | 0.00 | 63 | 1002.3 |
| 20260509060326 | 9 | 309 | 0.0 | 0.0 | 0.00 | 0.00 | 0.00 | 60 | 1002.2 |
| 20260509060220 | 9 | 309 | 0.0 | 0.0 | 0.00 | 0.00 | 0.00 | 59 | 1002.2 |
| 20260509060009 | 9 | 309 | 0.0 | 0.0 | 0.00 | 0.00 | 0.00 | 59 | 1002.4 |
| 20260509055928 | 9 | 309 | 0.0 | 0.0 | 0.00 | 0.00 | 0.00 | 59 | 1002.4 |
| 20260509055727 | 10 | 309 | 0.0 | 0.0 | 0.00 | 0.00 | 0.00 | 59 | 1002.3 |
| 20260509055527 | 10 | 309 | 0.0 | 0.0 | 0.00 | 0.00 | 0.00 | 59 | 1002.4 |
| 20260509055507 | 10 | 309 | 0.0 | 0.0 | 0.00 | 0.00 | 0.00 | 58 | 1002.4 |
| 20260509055326 | 10 | 309 | 0.0 | 0.0 | 0.00 | 0.00 | 0.00 | 58 | 1002.4 |
| 20260509055130 | 10 | 309 | 0.0 | 0.0 | 0.00 | 0.00 | 0.00 | 57 | 1002.5 |
| 20260509055003 | 10 | 309 | 0.0 | 0.0 | 0.00 | 0.00 | 0.00 | 58 | 1002.5 |
| 20260509054927 | 10 | 309 | 0.0 | 0.0 | 0.00 | 0.00 | 0.00 | 58 | 1002.5 |
| 20260509054726 | 10 | 309 | 0.0 | 0.0 | 0.00 | 0.00 | 0.00 | 56 | 1002.6 |
| 20260509054629 | 10 | 309 | 0.0 | 0.0 | 0.00 | 0.00 | 0.00 | 56 | 1002.6 |
| 20260509054503 | 10 | 309 | 0.0 | 0.0 | 0.00 | 0.00 | 0.00 | 56 | 1002.7 |
| 20260509054326 | 10 | 309 | 0.0 | 0.0 | 0.00 | 0.00 | 0.00 | 56 | 1002.7 |
| 20260509054127 | 10 | 309 | 0.0 | 0.0 | 0.00 | 0.00 | 0.00 | 58 | 1002.8 |
| 20260509054000 | 10 | 309 | 0.0 | 0.0 | 0.00 | 0.00 | 0.00 | 58 | 1002.8 |
| 20260509053928 | 10 | 309 | 0.0 | 0.0 | 0.00 | 0.00 | 0.00 | 57 | 1002.8 |
| 20260509053809 | 10 | 309 | 0.0 | 0.0 | 0.00 | 0.00 | 0.00 | 59 | 1002.8 |
| 20260509053759 | 10 | 309 | 0.0 | 0.0 | 0.00 | 0.00 | 0.00 | 56 | 1002.7 |
| 20260509053724 | 10 | 309 | 0.0 | 0.0 | 0.00 | 0.00 | 0.00 | 59 | 1002.7 |
| 20260509053326 | 10 | 309 | 0.0 | 0.0 | 0.00 | 0.00 | 0.00 | 60 | 1002.8 |
| 20260509053129 | 11 | 309 | 0.0 | 0.0 | 0.00 | 0.00 | 0.00 | 59 | 1002.9 |
| 20260509053002 | 11 | 309 | 0.0 | 0.0 | 0.00 | 0.00 | 0.00 | 60 | 1002.8 |
| 20260509052927 | 11 | 309 | 0.0 | 0.0 | 0.00 | 0.00 | 0.00 | 62 | 1002.8 |
| 20260509052726 | 11 | 309 | 0.0 | 0.0 | 0.00 | 0.00 | 0.00 | 61 | 1002.9 |
| 20260509052528 | 11 | 309 | 0.0 | 0.0 | 0.00 | 0.00 | 0.00 | 57 | 1002.8 |
| 20260509052502 | 11 | 309 | 0.0 | 0.0 | 0.00 | 0.00 | 0.00 | 57 | 1002.7 |
| 20260509052328 | 11 | 309 | 0.0 | 0.0 | 0.00 | 0.00 | 0.00 | 55 | 1002.7 |
| 20260509052225 | 11 | 309 | 0.0 | 0.0 | 0.00 | 0.00 | 0.00 | 53 | 1002.7 |
| 20260509052002 | 11 | 309 | 0.0 | 0.0 | 0.00 | 0.00 | 0.00 | 52 | 1002.7 |
| 20260509051927 | 11 | 309 | 0.0 | 0.0 | 0.00 | 0.00 | 0.00 | 52 | 1002.7 |
| 20260509051727 | 11 | 309 | 0.0 | 0.0 | 0.00 | 0.00 | 0.00 | 50 | 1002.7 |
| 20260509051529 | 12 | 309 | 0.0 | 0.0 | 0.00 | 0.00 | 0.00 | 51 | 1002.8 |
| 20260509051501 | 12 | 309 | 0.0 | 0.0 | 0.00 | 0.00 | 0.00 | 51 | 1002.7 |
| 20260509051328 | 12 | 309 | 0.0 | 0.0 | 0.00 | 0.00 | 0.00 | 51 | 1002.8 |
| 20260509051128 | 12 | 309 | 0.0 | 0.0 | 0.00 | 0.00 | 0.00 | 52 | 1002.9 |
| 20260509051001 | 12 | 309 | 0.0 | 0.0 | 0.00 | 0.00 | 0.00 | 52 | 1002.9 |
| 20260509050929 | 12 | 309 | 0.0 | 0.0 | 0.00 | 0.00 | 0.00 | 52 | 1002.9 |
| 20260509050727 | 12 | 309 | 0.0 | 0.0 | 0.00 | 0.00 | 0.00 | 54 | 1003.0 |
| 20260509050626 | 12 | 309 | 0.0 | 0.0 | 0.00 | 0.00 | 0.00 | 52 | 1002.9 |
| 20260509050501 | 12 | 309 | 0.0 | 0.0 | 0.00 | 0.00 | 0.00 | 52 | 1003.0 |
| 20260509050326 | 12 | 309 | 0.0 | 0.0 | 0.00 | 0.00 | 0.00 | 52 | 1002.9 |
| 20260509050126 | 12 | 309 | 0.0 | 0.0 | 0.00 | 0.00 | 0.00 | 55 | 1003.1 |
| 20260509050002 | 13 | 309 | 0.0 | 0.0 | 0.00 | 0.00 | 0.00 | 57 | 1003.1 |
| 20260509045927 | 13 | 309 | 0.0 | 0.0 | 0.00 | 0.00 | 0.00 | 57 | 1003.1 |
| 20260509045726 | 13 | 309 | 0.0 | 0.0 | 0.00 | 0.00 | 0.00 | 54 | 1003.2 |
| 20260509045501 | 13 | 309 | 0.0 | 0.0 | 0.00 | 0.00 | 0.00 | 56 | 1003.1 |
| 20260509045327 | 13 | 309 | 0.0 | 0.0 | 0.00 | 0.00 | 0.00 | 57 | 1003.1 |
| 20260509045126 | 13 | 309 | 0.0 | 0.0 | 0.00 | 0.00 | 0.00 | 55 | 1003.1 |
| 20260509045002 | 13 | 309 | 0.0 | 0.0 | 0.00 | 0.00 | 0.00 | 53 | 1003.1 |
| 20260509044927 | 13 | 309 | 0.0 | 1.6 | 0.00 | 0.00 | 0.00 | 53 | 1003.1 |
| 20260509044725 | 13 | 309 | 0.0 | 1.6 | 0.00 | 0.00 | 0.00 | 51 | 1003.1 |
| 20260509044625 | 13 | 309 | 0.0 | 1.6 | 0.00 | 0.00 | 0.00 | 53 | 1003.1 |
| 20260509044502 | 13 | 309 | 0.0 | 1.6 | 0.00 | 0.00 | 0.00 | 52 | 1003.1 |
| 20260509044326 | 13 | 309 | 0.0 | 1.6 | 0.00 | 0.00 | 0.00 | 52 | 1003.1 |
| 20260509044127 | 13 | 309 | 0.0 | 1.6 | 0.00 | 0.00 | 0.00 | 53 | 1003.1 |
| 20260509044002 | 13 | 309 | 0.0 | 1.6 | 0.00 | 0.00 | 0.00 | 52 | 1003.2 |
| 20260509043928 | 13 | 309 | 0.0 | 1.6 | 0.00 | 0.00 | 0.00 | 52 | 1003.2 |
| 20260509043726 | 13 | 309 | 0.0 | 1.6 | 0.00 | 0.00 | 0.00 | 48 | 1003.2 |
| 20260509043527 | 13 | 309 | 0.0 | 1.6 | 0.00 | 0.00 | 0.00 | 45 | 1003.2 |
| 20260509043501 | 13 | 309 | 0.0 | 1.6 | 0.00 | 0.00 | 0.00 | 45 | 1003.1 |
| 20260509043327 | 13 | 309 | 0.0 | 1.6 | 0.00 | 0.00 | 0.00 | 43 | 1003.2 |
| 20260509043127 | 13 | 309 | 0.0 | 1.6 | 0.00 | 0.00 | 0.00 | 45 | 1003.3 |
| 20260509043032 | 14 | 309 | 0.0 | 1.6 | 0.00 | 0.00 | 0.00 | 44 | 1003.2 |
| 20260509043003 | 14 | 309 | 0.0 | 1.6 | 0.00 | 0.00 | 0.00 | 44 | 1003.2 |
| 20260509042727 | 14 | 309 | 0.0 | 1.6 | 0.00 | 0.00 | 0.00 | 44 | 1003.3 |
| 20260509042502 | 14 | 309 | 0.0 | 1.6 | 0.00 | 0.00 | 0.00 | 42 | 1003.3 |
| 20260509042327 | 14 | 309 | 0.0 | 1.6 | 0.00 | 0.00 | 0.00 | 42 | 1003.3 |
| 20260509042127 | 14 | 309 | 0.0 | 1.6 | 0.00 | 0.00 | 0.00 | 42 | 1003.3 |
| 20260509041927 | 14 | 309 | 0.0 | 3.2 | 0.00 | 0.00 | 0.00 | 42 | 1003.3 |
| 20260509041727 | 14 | 309 | 0.0 | 3.2 | 0.00 | 0.00 | 0.00 | 42 | 1003.2 |
| 20260509041525 | 14 | 309 | 0.0 | 3.2 | 0.00 | 0.00 | 0.00 | 42 | 1003.2 |
| 20260509041434 | 14 | 309 | 0.0 | 3.2 | 0.00 | 0.00 | 0.00 | 43 | 1003.2 |
| 20260509041324 | 15 | 309 | 0.0 | 3.2 | 0.00 | 0.00 | 0.00 | 43 | 1003.2 |
| 20260509041125 | 15 | 309 | 0.0 | 3.2 | 0.00 | 0.00 | 0.00 | 44 | 1003.2 |
| 20260509040924 | 15 | 309 | 0.0 | 3.2 | 0.00 | 0.00 | 0.00 | 44 | 1003.2 |
| 20260509040722 | 15 | 309 | 0.0 | 3.2 | 0.00 | 0.00 | 0.00 | 42 | 1003.1 |
| 20260509040523 | 15 | 309 | 0.0 | 3.2 | 0.00 | 0.00 | 0.00 | 41 | 1003.1 |
| 20260509040430 | 15 | 309 | 0.0 | 3.2 | 0.00 | 0.00 | 0.00 | 41 | 1003.2 |
| 20260509040418 | 15 | 309 | 0.0 | 3.2 | 0.00 | 0.00 | 0.00 | 42 | 1003.2 |
| 20260509040123 | 15 | 309 | 0.0 | 3.2 | 0.00 | 0.00 | 0.00 | 41 | 1003.2 |
| 20260509035923 | 15 | 310 | 0.0 | 3.2 | 0.00 | 0.00 | 0.00 | 42 | 1003.3 |
| 20260509035722 | 15 | 310 | 0.0 | 3.2 | 0.00 | 0.00 | 0.00 | 40 | 1003.2 |
| 20260509035522 | 15 | 317 | 0.0 | 3.2 | 0.00 | 0.00 | 0.00 | 41 | 1003.2 |
| 20260509035429 | 15 | 329 | 0.0 | 3.2 | 0.00 | 0.00 | 0.00 | 41 | 1003.2 |
| 20260509035321 | 15 | 329 | 0.0 | 3.2 | 0.00 | 0.00 | 0.00 | 41 | 1003.2 |
| 20260509035116 | 15 | 329 | 0.0 | 3.2 | 0.00 | 0.00 | 0.00 | 40 | 1003.1 |
| 20260509034929 | 15 | 336 | 0.0 | 3.2 | 0.00 | 0.00 | 0.00 | 40 | 1003.3 |
| 20260509034910 | 15 | 336 | 0.0 | 3.2 | 0.00 | 0.00 | 0.00 | 40 | 1003.2 |
| 20260509034805 | 15 | 247 | 0.0 | 3.2 | 0.00 | 0.00 | 0.00 | 41 | 1003.2 |
| 20260509034510 | 15 | 247 | 0.0 | 3.2 | 0.00 | 0.00 | 0.00 | 40 | 1003.2 |
| 20260509034429 | 15 | 247 | 0.0 | 3.2 | 0.00 | 0.00 | 0.00 | 41 | 1003.2 |
| 20260509034310 | 15 | 247 | 0.0 | 3.2 | 0.00 | 0.00 | 0.00 | 41 | 1003.1 |
| 20260509034109 | 15 | 247 | 0.0 | 4.8 | 0.00 | 0.00 | 0.00 | 40 | 1003.2 |
| 20260509033909 | 15 | 247 | 0.0 | 4.8 | 0.00 | 0.00 | 0.00 | 40 | 1003.2 |
| 20260509033710 | 15 | 247 | 0.0 | 4.8 | 0.00 | 0.00 | 0.00 | 39 | 1003.1 |
| 20260509033507 | 15 | 247 | 0.0 | 4.8 | 0.00 | 0.00 | 0.00 | 39 | 1003.2 |
| 20260509033428 | 15 | 247 | 0.0 | 4.8 | 0.00 | 0.00 | 0.00 | 39 | 1003.2 |
| 20260509033315 | 15 | 217 | 0.0 | 9.7 | 0.00 | 0.00 | 0.00 | 39 | 1003.2 |
| 20260509033307 | 15 | 247 | 0.0 | 4.8 | 0.00 | 0.00 | 0.00 | 40 | 1003.2 |
| 20260509033227 | 16 | 113 | 0.0 | 9.7 | 0.00 | 0.00 | 0.00 | 40 | 1003.1 |
| 20260509032906 | 16 | 111 | 0.0 | 9.7 | 0.00 | 0.00 | 0.00 | 39 | 1003.0 |
| 20260509032708 | 16 | 192 | 0.0 | 9.7 | 0.00 | 0.00 | 0.00 | 40 | 1003.1 |
| 20260509032505 | 16 | 192 | 0.0 | 9.7 | 0.00 | 0.00 | 0.00 | 40 | 1003.0 |
| 20260509032426 | 16 | 192 | 0.0 | 9.7 | 0.00 | 0.00 | 0.00 | 39 | 1003.0 |
| 20260509032307 | 16 | 0 | 0.0 | 9.7 | 0.00 | 0.00 | 0.00 | 39 | 1002.9 |
| 20260509032106 | 16 | 250 | 0.0 | 6.4 | 0.00 | 0.00 | 0.00 | 38 | 1003.0 |
| 20260509031925 | 16 | 213 | 0.0 | 4.8 | 0.00 | 0.00 | 0.00 | 40 | 1003.0 |
| 20260509031905 | 16 | 214 | 0.0 | 4.8 | 0.00 | 0.00 | 0.00 | 40 | 1003.1 |
| 20260509031802 | 16 | 259 | 0.0 | 4.8 | 0.00 | 0.00 | 0.00 | 39 | 1002.9 |
| 20260509031504 | 16 | 255 | 0.0 | 4.8 | 0.00 | 0.00 | 0.00 | 39 | 1003.0 |
| 20260509031425 | 16 | 255 | 0.0 | 4.8 | 0.00 | 0.00 | 0.00 | 39 | 1003.0 |
| 20260509031307 | 16 | 257 | 0.0 | 4.8 | 0.00 | 0.00 | 0.00 | 39 | 1002.9 |
| 20260509031106 | 16 | 161 | 0.0 | 4.8 | 0.00 | 0.00 | 0.00 | 40 | 1002.9 |
| 20260509030923 | 16 | 161 | 0.0 | 4.8 | 0.00 | 0.00 | 0.00 | 40 | 1002.8 |
| 20260509030850 | 16 | 161 | 0.0 | 8.0 | 0.00 | 0.00 | 0.00 | 40 | 1002.8 |
| 20260509030647 | 16 | 164 | 0.0 | 8.0 | 0.00 | 0.00 | 0.00 | 38 | 1002.8 |
| 20260509030445 | 16 | 192 | 0.0 | 8.0 | 0.00 | 0.00 | 0.00 | 39 | 1002.8 |
| 20260509030410 | 16 | 92 | 0.0 | 8.0 | 0.00 | 0.00 | 0.00 | 39 | 1002.8 |
| 20260509030245 | 16 | 37 | 0.0 | 8.0 | 0.00 | 0.00 | 0.00 | 38 | 1002.8 |
| 20260509030144 | 16 | 39 | 0.0 | 8.0 | 0.00 | 0.00 | 0.00 | 38 | 1002.9 |
| 20260509025904 | 16 | 251 | 0.0 | 6.4 | 0.00 | 0.00 | 0.00 | 37 | 1002.7 |
| 20260509025846 | 17 | 254 | 0.0 | 11.3 | 0.00 | 0.00 | 0.00 | 37 | 1002.7 |
| 20260509025631 | 17 | 238 | 0.0 | 11.3 | 0.00 | 0.00 | 0.00 | 37 | 1002.8 |
| 20260509025406 | 17 | 238 | 0.0 | 11.3 | 0.00 | 0.00 | 0.00 | 37 | 1002.8 |
| 20260509025227 | 17 | 278 | 0.0 | 11.3 | 0.00 | 0.00 | 0.00 | 38 | 1002.8 |
| 20260509025028 | 17 | 241 | 0.0 | 11.3 | 0.00 | 0.00 | 0.00 | 38 | 1002.7 |
| 20260509024859 | 17 | 271 | 0.0 | 11.3 | 0.00 | 0.00 | 0.00 | 38 | 1002.7 |
| 20260509024826 | 17 | 245 | 0.0 | 8.0 | 0.00 | 0.00 | 0.00 | 38 | 1002.7 |
| 20260509024627 | 17 | 254 | 0.0 | 8.0 | 0.00 | 0.00 | 0.00 | 37 | 1002.7 |
| 20260509024527 | 17 | 252 | 0.0 | 9.7 | 0.00 | 0.00 | 0.00 | 37 | 1002.6 |
| 20260509024359 | 17 | 261 | 0.0 | 9.7 | 0.00 | 0.00 | 0.00 | 37 | 1002.6 |
| 20260509024225 | 17 | 285 | 0.0 | 9.7 | 0.00 | 0.00 | 0.00 | 38 | 1002.6 |
| 20260509024023 | 17 | 245 | 0.0 | 9.7 | 0.00 | 0.00 | 0.00 | 37 | 1002.7 |
| 20260509023900 | 17 | 265 | 0.0 | 9.7 | 0.00 | 0.00 | 0.00 | 37 | 1002.6 |
| 20260509023806 | 17 | 269 | 0.0 | 9.7 | 0.00 | 0.00 | 0.00 | 37 | 1002.4 |
| 20260509023608 | 17 | 248 | 0.0 | 9.7 | 0.00 | 0.00 | 0.00 | 37 | 1002.5 |
| 20260509023407 | 17 | 251 | 0.0 | 9.7 | 0.00 | 0.00 | 0.00 | 37 | 1002.5 |
| 20260509023358 | 17 | 251 | 0.0 | 9.7 | 0.00 | 0.00 | 0.00 | 37 | 1002.5 |
| 20260509023205 | 17 | 196 | 0.0 | 9.7 | 0.00 | 0.00 | 0.00 | 36 | 1002.5 |
| 20260509023002 | 17 | 196 | 0.0 | 11.3 | 0.00 | 0.00 | 0.00 | 37 | 1002.5 |
| 20260509022913 | 17 | 219 | 0.0 | 11.3 | 0.00 | 0.00 | 0.00 | 37 | 1002.5 |
| 20260509022858 | 17 | 224 | 0.0 | 11.3 | 0.00 | 0.00 | 0.00 | 37 | 1002.6 |
| 20260509022602 | 17 | 250 | 0.0 | 11.3 | 0.00 | 0.00 | 0.00 | 37 | 1002.5 |
| 20260509022400 | 17 | 254 | 0.0 | 11.3 | 0.00 | 0.00 | 0.00 | 36 | 1002.5 |
| 20260509022158 | 17 | 257 | 0.0 | 11.3 | 0.00 | 0.00 | 0.00 | 35 | 1002.3 |
| 20260509021956 | 17 | 261 | 0.0 | 9.7 | 0.00 | 0.00 | 0.00 | 36 | 1002.3 |
| 20260509021856 | 17 | 261 | 0.0 | 9.7 | 0.00 | 0.00 | 0.00 | 36 | 1002.4 |
| 20260509021749 | 17 | 261 | 0.0 | 9.7 | 0.00 | 0.00 | 0.00 | 36 | 1002.3 |
| 20260509021551 | 17 | 244 | 0.0 | 9.7 | 0.00 | 0.00 | 0.00 | 35 | 1002.2 |
| 20260509021348 | 17 | 265 | 0.0 | 8.0 | 0.00 | 0.00 | 0.00 | 36 | 1002.3 |
| 20260509021249 | 17 | 252 | 0.0 | 8.0 | 0.00 | 0.00 | 0.00 | 36 | 1002.1 |
| 20260509020949 | 17 | 264 | 0.0 | 8.0 | 0.00 | 0.00 | 0.00 | 37 | 1002.1 |
| 20260509020848 | 17 | 247 | 0.0 | 8.0 | 0.00 | 0.00 | 0.00 | 36 | 1002.1 |
| 20260509020747 | 17 | 247 | 0.0 | 8.0 | 0.00 | 0.00 | 0.00 | 36 | 1002.0 |
| 20260509020548 | 17 | 240 | 0.0 | 9.7 | 0.00 | 0.00 | 0.00 | 36 | 1002.0 |
| 20260509020450 | 17 | 237 | 0.0 | 9.7 | 0.00 | 0.00 | 0.00 | 36 | 1002.0 |
| 20260509020346 | 17 | 237 | 0.0 | 9.7 | 0.00 | 0.00 | 0.00 | 36 | 1002.0 |
| 20260509020146 | 18 | 240 | 0.0 | 9.7 | 0.00 | 0.00 | 0.00 | 36 | 1001.9 |
| 20260509015945 | 18 | 213 | 0.0 | 9.7 | 0.00 | 0.00 | 0.00 | 35 | 1002.0 |
| 20260509015846 | 17 | 216 | 0.0 | 9.7 | 0.00 | 0.00 | 0.00 | 35 | 1001.9 |
| 20260509015746 | 18 | 227 | 0.0 | 9.7 | 0.00 | 0.00 | 0.00 | 36 | 1002.0 |
| 20260509015544 | 18 | 250 | 0.0 | 8.0 | 0.00 | 0.00 | 0.00 | 35 | 1001.9 |
| 20260509015348 | 18 | 226 | 0.0 | 8.0 | 0.00 | 0.00 | 0.00 | 34 | 1001.8 |
| 20260509015136 | 18 | 250 | 0.0 | 8.0 | 0.00 | 0.00 | 0.00 | 34 | 1001.9 |
| 20260509014938 | 18 | 217 | 0.0 | 20.9 | 0.00 | 0.00 | 0.00 | 34 | 1001.8 |
| 20260509014844 | 18 | 159 | 0.0 | 20.9 | 0.00 | 0.00 | 0.00 | 35 | 1001.8 |
| 20260509014835 | 18 | 217 | 0.0 | 20.9 | 0.00 | 0.00 | 0.00 | 35 | 1001.8 |
| 20260509014534 | 18 | 227 | 0.0 | 20.9 | 0.00 | 0.00 | 0.00 | 34 | 1001.8 |
| 20260509014335 | 18 | 250 | 0.0 | 20.9 | 0.00 | 0.00 | 0.00 | 34 | 1001.8 |
| 20260509014134 | 18 | 254 | 0.0 | 20.9 | 0.00 | 0.00 | 0.00 | 33 | 1001.7 |
| 20260509013933 | 18 | 252 | 0.0 | 8.0 | 0.00 | 0.00 | 0.00 | 34 | 1001.7 |
| 20260509013830 | 18 | 252 | 0.0 | 8.0 | 0.00 | 0.00 | 0.00 | 34 | 1001.7 |
| 20260509013735 | 18 | 252 | 0.0 | 8.0 | 0.00 | 0.00 | 0.00 | 33 | 1001.7 |
| 20260509013532 | 18 | 254 | 0.0 | 8.0 | 0.00 | 0.00 | 0.00 | 33 | 1001.6 |
| 20260509013331 | 18 | 241 | 0.0 | 11.3 | 0.00 | 0.00 | 0.00 | 34 | 1001.6 |
| 20260509013227 | 18 | 237 | 0.0 | 11.3 | 0.00 | 0.00 | 0.00 | 33 | 1001.6 |
| 20260509012931 | 18 | 241 | 0.0 | 11.3 | 0.00 | 0.00 | 0.00 | 32 | 1001.6 |
| 20260509012833 | 18 | 233 | 0.0 | 11.3 | 0.00 | 0.00 | 0.00 | 31 | 1001.5 |
| 20260509012732 | 18 | 252 | 0.0 | 11.3 | 0.00 | 0.00 | 0.00 | 32 | 1001.5 |
| 20260509012631 | 18 | 254 | 0.0 | 9.7 | 0.00 | 0.00 | 0.00 | 31 | 1001.5 |
| 20260509012616 | 18 | 276 | 0.0 | 11.3 | 0.00 | 0.00 | 0.00 | 31 | 1001.5 |
| 20260509012124 | 18 | 233 | 0.0 | 9.7 | 0.00 | 0.00 | 0.00 | 32 | 1001.4 |
| 20260509011924 | 19 | 274 | 0.0 | 9.7 | 0.00 | 0.00 | 0.00 | 31 | 1001.4 |
| 20260509011833 | 19 | 223 | 0.0 | 9.7 | 0.00 | 0.00 | 0.00 | 31 | 1001.5 |
| 20260509011726 | 19 | 216 | 0.0 | 9.7 | 0.00 | 0.00 | 0.00 | 31 | 1001.5 |
| 20260509011626 | 19 | 255 | 0.0 | 8.0 | 0.00 | 0.00 | 0.00 | 30 | 1001.5 |
| 20260509011608 | 19 | 254 | 0.0 | 8.0 | 0.00 | 0.00 | 0.00 | 31 | 1001.5 |
| 20260509011325 | 19 | 255 | 0.0 | 8.0 | 0.00 | 0.00 | 0.00 | 30 | 1001.5 |
| 20260509011106 | 19 | 255 | 0.0 | 9.7 | 0.00 | 0.00 | 0.00 | 30 | 1001.5 |
| 20260509010903 | 19 | 248 | 0.0 | 11.3 | 0.00 | 0.00 | 0.00 | 31 | 1001.4 |
| 20260509010828 | 19 | 243 | 0.0 | 14.5 | 0.00 | 0.00 | 0.00 | 31 | 1001.4 |
| 20260509010804 | 19 | 241 | 0.0 | 14.5 | 0.00 | 0.00 | 0.00 | 31 | 1001.4 |
| 20260509010608 | 20 | 247 | 0.0 | 17.7 | 0.00 | 0.00 | 0.00 | 29 | 1001.4 |
| 20260509010552 | 20 | 247 | 0.0 | 14.5 | 0.00 | 0.00 | 0.00 | 29 | 1001.4 |
| 20260509010305 | 20 | 243 | 0.0 | 17.7 | 0.00 | 0.00 | 0.00 | 29 | 1001.4 |
| 20260509010034 | 20 | 235 | 0.0 | 17.7 | 0.00 | 0.00 | 0.00 | 30 | 1001.3 |
| 20260509005833 | 20 | 233 | 0.0 | 17.7 | 0.00 | 0.00 | 0.00 | 31 | 1001.4 |
| 20260509005814 | 20 | 235 | 0.0 | 17.7 | 0.00 | 0.00 | 0.00 | 31 | 1001.4 |
| 20260509005634 | 20 | 258 | 0.0 | 17.7 | 0.00 | 0.00 | 0.00 | 30 | 1001.4 |
| 20260509005432 | 20 | 255 | 0.0 | 17.7 | 0.00 | 0.00 | 0.00 | 29 | 1001.3 |
| 20260509005318 | 20 | 262 | 0.0 | 17.7 | 0.00 | 0.00 | 0.00 | 30 | 1001.4 |
| 20260509005231 | 20 | 251 | 0.0 | 17.7 | 0.00 | 0.00 | 0.00 | 30 | 1001.4 |
| 20260509005127 | 20 | 243 | 0.0 | 17.7 | 0.00 | 0.00 | 0.00 | 31 | 1001.3 |
| 20260509004831 | 20 | 254 | 0.0 | 9.7 | 0.00 | 0.00 | 0.00 | 31 | 1001.2 |
| 20260509004815 | 20 | 254 | 0.0 | 9.7 | 0.00 | 0.00 | 0.00 | 31 | 1001.2 |
| 20260509004631 | 20 | 154 | 0.0 | 14.5 | 0.00 | 0.00 | 0.00 | 31 | 1001.3 |
| 20260509004529 | 20 | 233 | 0.0 | 14.5 | 0.00 | 0.00 | 0.00 | 31 | 1001.3 |
| 20260509004309 | 20 | 233 | 0.0 | 14.5 | 0.00 | 0.00 | 0.00 | 30 | 1001.2 |
| 20260509004230 | 20 | 259 | 0.0 | 14.5 | 0.00 | 0.00 | 0.00 | 31 | 1001.2 |
| 20260509004031 | 20 | 247 | 0.0 | 14.5 | 0.00 | 0.00 | 0.00 | 30 | 1001.2 |
| 20260509003830 | 20 | 251 | 0.0 | 14.5 | 0.00 | 0.00 | 0.00 | 31 | 1001.2 |
| 20260509003805 | 20 | 257 | 0.0 | 14.5 | 0.00 | 0.00 | 0.00 | 30 | 1001.2 |
| 20260509003630 | 20 | 252 | 0.0 | 14.5 | 0.00 | 0.00 | 0.00 | 30 | 1001.2 |
| 20260509003428 | 20 | 272 | 0.0 | 14.5 | 0.00 | 0.00 | 0.00 | 30 | 1001.2 |
| 20260509003305 | 20 | 278 | 0.0 | 14.5 | 0.00 | 0.00 | 0.00 | 30 | 1001.2 |
| 20260509003229 | 20 | 264 | 0.0 | 14.5 | 0.00 | 0.00 | 0.00 | 30 | 1001.2 |
| 20260509003027 | 20 | 227 | 0.0 | 14.5 | 0.00 | 0.00 | 0.00 | 31 | 1001.2 |
| 20260509002926 | 20 | 238 | 0.0 | 14.5 | 0.00 | 0.00 | 0.00 | 32 | 1001.1 |
| 20260509002806 | 20 | 190 | 0.0 | 14.5 | 0.00 | 0.00 | 0.00 | 31 | 1001.2 |
| 20260509002630 | 20 | 248 | 0.0 | 14.5 | 0.00 | 0.00 | 0.00 | 31 | 1001.2 |
| 20260509002427 | 21 | 248 | 0.0 | 14.5 | 0.00 | 0.00 | 0.00 | 31 | 1001.4 |
| 20260509002305 | 21 | 254 | 0.0 | 14.5 | 0.00 | 0.00 | 0.00 | 31 | 1001.2 |
| 20260509002217 | 21 | 245 | 0.0 | 14.5 | 0.00 | 0.00 | 0.00 | 31 | 1001.2 |
| 20260509002017 | 21 | 248 | 0.0 | 19.3 | 0.00 | 0.00 | 0.00 | 31 | 1001.2 |
| 20260509001803 | 21 | 224 | 0.0 | 19.3 | 0.00 | 0.00 | 0.00 | 32 | 1001.2 |
| 20260509001620 | 21 | 248 | 0.0 | 19.3 | 0.00 | 0.00 | 0.00 | 31 | 1001.2 |
| 20260509001413 | 21 | 238 | 0.0 | 19.3 | 0.00 | 0.00 | 0.00 | 30 | 1001.3 |
| 20260509001319 | 21 | 261 | 0.0 | 19.3 | 0.00 | 0.00 | 0.00 | 31 | 1001.3 |
| 20260509001307 | 21 | 248 | 0.0 | 19.3 | 0.00 | 0.00 | 0.00 | 31 | 1001.3 |
| 20260509001046 | 21 | 228 | 0.0 | 16.1 | 0.00 | 0.00 | 0.00 | 32 | 1001.2 |
| 20260509001038 | 21 | 248 | 0.0 | 9.7 | 0.00 | 0.00 | 0.00 | 32 | 1001.2 |
| 20260509000735 | 21 | 257 | 0.0 | 16.1 | 0.00 | 0.00 | 0.00 | 31 | 1001.2 |
| 20260509000534 | 21 | 233 | 0.0 | 16.1 | 0.00 | 0.00 | 0.00 | 31 | 1001.1 |
| 20260509000337 | 21 | 213 | 0.0 | 16.1 | 0.00 | 0.00 | 0.00 | 30 | 1001.2 |
| 20260509000303 | 21 | 240 | 0.0 | 16.1 | 0.00 | 0.00 | 0.00 | 31 | 1001.2 |
| 20260509000241 | 21 | 264 | 0.0 | 16.1 | 0.00 | 0.00 | 0.00 | 30 | 1001.2 |
| 20260508235935 | 21 | 245 | 0.0 | 16.1 | 0.00 | 0.00 | 0.00 | 29 | 1001.1 |
| 20260508235802 | 21 | 264 | 0.0 | 16.1 | 0.00 | 0.00 | 0.00 | 31 | 1001.1 |
| 20260508235726 | 21 | 230 | 0.0 | 16.1 | 0.00 | 0.00 | 0.00 | 31 | 1001.1 |
| 20260508235528 | 21 | 243 | 0.0 | 16.1 | 0.00 | 0.00 | 0.00 | 32 | 1001.1 |
| 20260508235325 | 21 | 251 | 0.0 | 16.1 | 0.00 | 0.00 | 0.00 | 30 | 1001.2 |
| 20260508235301 | 21 | 251 | 0.0 | 16.1 | 0.00 | 0.00 | 0.00 | 31 | 1001.2 |
| 20260508235126 | 21 | 224 | 0.0 | 16.1 | 0.00 | 0.00 | 0.00 | 31 | 1001.2 |
| 20260508234926 | 21 | 244 | 0.0 | 9.7 | 0.00 | 0.00 | 0.00 | 32 | 1001.2 |
| 20260508234802 | 22 | 244 | 0.0 | 9.7 | 0.00 | 0.00 | 0.00 | 32 | 1001.1 |
| 20260508234724 | 21 | 217 | 0.0 | 9.7 | 0.00 | 0.00 | 0.00 | 32 | 1001.1 |
| 20260508234629 | 22 | 227 | 0.0 | 9.7 | 0.00 | 0.00 | 0.00 | 30 | 1001.2 |
| 20260508234329 | 22 | 245 | 0.0 | 9.7 | 0.00 | 0.00 | 0.00 | 32 | 1001.2 |
| 20260508234301 | 22 | 241 | 0.0 | 9.7 | 0.00 | 0.00 | 0.00 | 32 | 1001.2 |
| 20260508234126 | 22 | 224 | 0.0 | 16.1 | 0.00 | 0.00 | 0.00 | 31 | 1001.2 |
| 20260508233927 | 21 | 197 | 0.0 | 16.1 | 0.00 | 0.00 | 0.00 | 31 | 1001.2 |
| 20260508233802 | 21 | 173 | 0.0 | 16.1 | 0.00 | 0.00 | 0.00 | 34 | 1001.3 |
| 20260508233723 | 21 | 258 | 0.0 | 16.1 | 0.00 | 0.00 | 0.00 | 33 | 1001.3 |
| 20260508233522 | 21 | 266 | 0.0 | 16.1 | 0.00 | 0.00 | 0.00 | 32 | 1001.3 |
| 20260508233301 | 21 | 254 | 0.0 | 16.1 | 0.00 | 0.00 | 0.00 | 31 | 1001.2 |
| 20260508233122 | 21 | 257 | 0.0 | 16.1 | 0.00 | 0.00 | 0.00 | 31 | 1001.4 |
| 20260508233026 | 21 | 302 | 0.0 | 16.1 | 0.00 | 0.00 | 0.00 | 30 | 1001.3 |
| 20260508232805 | 21 | 247 | 0.0 | 16.1 | 0.00 | 0.00 | 0.00 | 32 | 1001.3 |
| 20260508232726 | 21 | 243 | 0.0 | 16.1 | 0.00 | 0.00 | 0.00 | 30 | 1001.3 |
| 20260508232522 | 21 | 255 | 0.0 | 16.1 | 0.00 | 0.00 | 0.00 | 30 | 1001.2 |
| 20260508232323 | 21 | 231 | 0.0 | 16.1 | 0.00 | 0.00 | 0.00 | 31 | 1001.3 |
| 20260508232301 | 21 | 230 | 0.0 | 16.1 | 0.00 | 0.00 | 0.00 | 31 | 1001.3 |
| 20260508232122 | 21 | 258 | 0.0 | 20.9 | 0.00 | 0.00 | 0.00 | 30 | 1001.2 |
| 20260508231919 | 21 | 240 | 0.0 | 20.9 | 0.00 | 0.00 | 0.00 | 30 | 1001.2 |
| 20260508231801 | 22 | 228 | 0.0 | 20.9 | 0.00 | 0.00 | 0.00 | 30 | 1001.2 |
| 20260508231721 | 22 | 230 | 0.0 | 20.9 | 0.00 | 0.00 | 0.00 | 30 | 1001.3 |
| 20260508231619 | 22 | 259 | 0.0 | 20.9 | 0.00 | 0.00 | 0.00 | 30 | 1001.3 |
| 20260508231318 | 22 | 230 | 0.0 | 20.9 | 0.00 | 0.00 | 0.00 | 29 | 1001.2 |
| 20260508231301 | 22 | 219 | 0.0 | 20.9 | 0.00 | 0.00 | 0.00 | 29 | 1001.2 |
| 20260508231116 | 22 | 233 | 0.0 | 20.9 | 0.00 | 0.00 | 0.00 | 29 | 1001.3 |
| 20260508230918 | 22 | 250 | 0.0 | 20.9 | 0.00 | 0.00 | 0.00 | 29 | 1001.3 |
| 20260508230800 | 22 | 271 | 0.0 | 20.9 | 0.00 | 0.00 | 0.00 | 30 | 1001.4 |
| 20260508230718 | 22 | 268 | 0.0 | 20.9 | 0.00 | 0.00 | 0.00 | 29 | 1001.3 |
| 20260508230515 | 22 | 219 | 0.0 | 22.5 | 0.00 | 0.00 | 0.00 | 29 | 1001.4 |
| 20260508230315 | 22 | 257 | 0.0 | 22.5 | 0.00 | 0.00 | 0.00 | 29 | 1001.3 |
| 20260508230301 | 22 | 252 | 0.0 | 22.5 | 0.00 | 0.00 | 0.00 | 29 | 1001.3 |
| 20260508230115 | 22 | 248 | 0.0 | 22.5 | 0.00 | 0.00 | 0.00 | 29 | 1001.2 |
| 20260508230015 | 22 | 0 | 0.0 | 22.5 | 0.00 | 0.00 | 0.00 | 29 | 1001.3 |
| 20260508225800 | 22 | 237 | 0.0 | 22.5 | 0.00 | 0.00 | 0.00 | 29 | 1001.3 |
| 20260508225714 | 22 | 243 | 0.0 | 22.5 | 0.00 | 0.00 | 0.00 | 29 | 1001.3 |
| 20260508225511 | 22 | 233 | 0.0 | 14.5 | 0.00 | 0.00 | 0.00 | 31 | 1001.3 |
| 20260508225306 | 22 | 238 | 0.0 | 11.3 | 0.00 | 0.00 | 0.00 | 31 | 1001.3 |
| 20260508225103 | 22 | 231 | 0.0 | 11.3 | 0.00 | 0.00 | 0.00 | 29 | 1001.3 |
| 20260508224902 | 22 | 241 | 0.0 | 11.3 | 0.00 | 0.00 | 0.00 | 30 | 1001.3 |
| 20260508224803 | 22 | 212 | 0.0 | 11.3 | 0.00 | 0.00 | 0.00 | 32 | 1001.3 |
| 20260508224708 | 22 | 212 | 0.0 | 16.1 | 0.00 | 0.00 | 0.00 | 32 | 1001.3 |
| 20260508224542 | 22 | 220 | 0.0 | 17.7 | 0.00 | 0.00 | 0.00 | 32 | 1001.2 |
| 20260508224245 | 22 | 237 | 0.0 | 17.7 | 0.00 | 0.00 | 0.00 | 32 | 1001.3 |
| 20260508224230 | 22 | 235 | 0.0 | 17.7 | 0.00 | 0.00 | 0.00 | 32 | 1001.3 |
| 20260508224045 | 22 | 258 | 0.0 | 17.7 | 0.00 | 0.00 | 0.00 | 31 | 1001.3 |
| 20260508223844 | 22 | 245 | 0.0 | 17.7 | 0.00 | 0.00 | 0.00 | 30 | 1001.2 |
| 20260508223730 | 22 | 257 | 0.0 | 17.7 | 0.00 | 0.00 | 0.00 | 30 | 1001.2 |
| 20260508223643 | 22 | 226 | 0.0 | 17.7 | 0.00 | 0.00 | 0.00 | 30 | 1001.1 |
| 20260508223443 | 22 | 241 | 0.0 | 17.7 | 0.00 | 0.00 | 0.00 | 32 | 1001.3 |
| 20260508223244 | 22 | 252 | 0.0 | 17.7 | 0.00 | 0.00 | 0.00 | 31 | 1001.2 |
| 20260508223230 | 22 | 220 | 0.0 | 17.7 | 0.00 | 0.00 | 0.00 | 31 | 1001.2 |
| 20260508223042 | 22 | 266 | 0.0 | 17.7 | 0.00 | 0.00 | 0.00 | 30 | 1001.2 |
| 20260508222938 | 22 | 231 | 0.0 | 11.3 | 0.00 | 0.00 | 0.00 | 32 | 1001.3 |
| 20260508222729 | 22 | 248 | 0.0 | 11.3 | 0.00 | 0.00 | 0.00 | 33 | 1001.4 |
| 20260508222642 | 22 | 240 | 0.0 | 16.1 | 0.00 | 0.00 | 0.00 | 30 | 1001.2 |
| 20260508222435 | 21 | 233 | 0.0 | 16.1 | 0.00 | 0.00 | 0.00 | 31 | 1001.2 |
| 20260508222229 | 21 | 248 | 0.0 | 16.1 | 0.00 | 0.00 | 0.00 | 31 | 1001.3 |
| 20260508222034 | 22 | 179 | 0.0 | 16.1 | 0.00 | 0.00 | 0.00 | 32 | 1001.3 |
| 20260508221834 | 22 | 240 | 0.0 | 24.1 | 0.00 | 0.00 | 0.00 | 29 | 1001.3 |
| 20260508221820 | 22 | 237 | 0.0 | 24.1 | 0.00 | 0.00 | 0.00 | 32 | 1001.3 |
| 20260508221752 | 22 | 254 | 0.0 | 9.7 | 0.00 | 0.00 | 0.00 | 33 | 1001.5 |
| 20260508221748 | 21 | 227 | 0.0 | 19.3 | 0.00 | 0.00 | 0.00 | 30 | 1001.8 |
| 20260508221737 | 22 | 244 | 0.0 | 24.1 | 0.00 | 0.00 | 0.00 | 31 | 1001.3 |
| 20260508221653 | 22 | 217 | 0.0 | 24.1 | 0.00 | 0.00 | 0.00 | 32 | 1001.3 |
| 20260508221613 | 22 | 235 | 0.0 | 24.1 | 0.00 | 0.00 | 0.00 | 30 | 1001.3 |
| 20260508221541 | 22 | 223 | 0.0 | 24.1 | 0.00 | 0.00 | 0.00 | 29 | 1001.3 |
| 20260508221512 | 22 | 248 | 0.0 | 14.5 | 0.00 | 0.00 | 0.00 | 31 | 1001.3 |
| 20260508221452 | 22 | 255 | 0.0 | 14.5 | 0.00 | 0.00 | 0.00 | 32 | 1001.4 |
| 20260508221434 | 21 | 234 | 0.0 | 14.5 | 0.00 | 0.00 | 0.00 | 32 | 1001.4 |
| 20260508221405 | 21 | 254 | 0.0 | 11.3 | 0.00 | 0.00 | 0.00 | 31 | 1001.5 |
| 20260508221332 | 21 | 252 | 0.0 | 11.3 | 0.00 | 0.00 | 0.00 | 30 | 1001.4 |
| 20260508221308 | 21 | 224 | 0.0 | 11.3 | 0.00 | 0.00 | 0.00 | 32 | 1001.5 |
| 20260508221226 | 22 | 237 | 0.0 | 9.7 | 0.00 | 0.00 | 0.00 | 32 | 1001.5 |
| 20260508221210 | 22 | 221 | 0.0 | 9.7 | 0.00 | 0.00 | 0.00 | 30 | 1001.4 |
| 20260508221142 | 22 | 238 | 0.0 | 9.7 | 0.00 | 0.00 | 0.00 | 34 | 1001.5 |
| 20260508221114 | 22 | 238 | 0.0 | 8.0 | 0.00 | 0.00 | 0.00 | 34 | 1001.6 |
| 20260508221042 | 21 | 221 | 0.0 | 8.0 | 0.00 | 0.00 | 0.00 | 33 | 1001.6 |
| 20260508221011 | 21 | 227 | 0.0 | 11.3 | 0.00 | 0.00 | 0.00 | 30 | 1001.6 |
| 20260508220959 | 21 | 262 | 0.0 | 11.3 | 0.00 | 0.00 | 0.00 | 29 | 1001.6 |
| 20260508220941 | 21 | 257 | 0.0 | 19.3 | 0.00 | 0.00 | 0.00 | 29 | 1001.6 |
| 20260508220914 | 21 | 233 | 0.0 | 19.3 | 0.00 | 0.00 | 0.00 | 31 | 1001.6 |
| 20260508220843 | 21 | 234 | 0.0 | 19.3 | 0.00 | 0.00 | 0.00 | 30 | 1001.7 |
| 20260508220750 | 21 | 252 | 0.0 | 19.3 | 0.00 | 0.00 | 0.00 | 30 | 1001.7 |
| 20260508220738 | 21 | 245 | 0.0 | 19.3 | 0.00 | 0.00 | 0.00 | 30 | 1001.7 |
| 20260508220705 | 21 | 255 | 0.0 | 17.7 | 0.00 | 0.00 | 0.00 | 30 | 1001.8 |
| 20260508220634 | 22 | 221 | 0.0 | 16.1 | 0.00 | 0.00 | 0.00 | 30 | 1001.7 |
| 20260508213229 | 21 | 262 | 0.0 | 16.1 | 0.00 | 0.00 | 0.00 | 32 | 1001.7 |
| 20260508213135 | 21 | 228 | 0.0 | 16.1 | 0.00 | 0.00 | 0.00 | 28 | 1001.8 |
| 20260508212934 | 21 | 251 | 0.0 | 11.3 | 0.00 | 0.00 | 0.00 | 30 | 1001.8 |
| 20260508212734 | 21 | 251 | 0.0 | 11.3 | 0.00 | 0.00 | 0.00 | 30 | 1001.9 |
| 20260508212527 | 21 | 251 | 0.0 | 11.3 | 0.00 | 0.00 | 0.00 | 30 | 1001.9 |
| 20260508212324 | 21 | 230 | 0.0 | 11.3 | 0.00 | 0.00 | 0.00 | 31 | 1002.0 |
| 20260508212229 | 21 | 245 | 0.0 | 11.3 | 0.00 | 0.00 | 0.00 | 30 | 1001.9 |
| 20260508212125 | 21 | 238 | 0.0 | 11.3 | 0.00 | 0.00 | 0.00 | 31 | 1001.9 |
| 20260508212033 | 21 | 252 | 0.0 | 9.7 | 0.00 | 0.00 | 0.00 | 30 | 1001.9 |
| 20260508211727 | 21 | 247 | 0.0 | 9.7 | 0.00 | 0.00 | 0.00 | 30 | 1001.9 |
| 20260508211524 | 21 | 204 | 0.0 | 8.0 | 0.00 | 0.00 | 0.00 | 34 | 1002.0 |
| 20260508211324 | 21 | 164 | 0.0 | 8.0 | 0.00 | 0.00 | 0.00 | 31 | 1002.0 |
| 20260508211227 | 21 | 164 | 0.0 | 8.0 | 0.00 | 0.00 | 0.00 | 30 | 1002.0 |
| 20260508211124 | 21 | 76 | 0.0 | 8.0 | 0.00 | 0.00 | 0.00 | 30 | 1002.0 |
| 20260508210924 | 21 | 234 | 0.0 | 8.0 | 0.00 | 0.00 | 0.00 | 34 | 1002.1 |
| 20260508210725 | 21 | 234 | 0.0 | 8.0 | 0.00 | 0.00 | 0.00 | 35 | 1002.1 |
| 20260508210526 | 21 | 233 | 0.0 | 8.0 | 0.00 | 0.00 | 0.00 | 29 | 1002.1 |
| 20260508210424 | 21 | 235 | 0.0 | 8.0 | 0.00 | 0.00 | 0.00 | 28 | 1002.2 |
| 20260508210227 | 21 | 238 | 0.0 | 8.0 | 0.00 | 0.00 | 0.00 | 29 | 1002.1 |
| 20260508210126 | 21 | 238 | 0.0 | 8.0 | 0.00 | 0.00 | 0.00 | 30 | 1002.2 |
| 20260508205925 | 21 | 262 | 0.0 | 9.7 | 0.00 | 0.00 | 0.00 | 32 | 1002.2 |
| 20260508205724 | 21 | 190 | 0.0 | 9.7 | 0.00 | 0.00 | 0.00 | 30 | 1002.2 |
| 20260508205523 | 21 | 254 | 0.0 | 14.5 | 0.00 | 0.00 | 0.00 | 28 | 1002.2 |
| 20260508205321 | 21 | 254 | 0.0 | 14.5 | 0.00 | 0.00 | 0.00 | 28 | 1002.3 |
| 20260508205222 | 21 | 230 | 0.0 | 16.1 | 0.00 | 0.00 | 0.00 | 29 | 1002.3 |
| 20260508205122 | 21 | 261 | 0.0 | 16.1 | 0.00 | 0.00 | 0.00 | 29 | 1002.3 |
| 20260508205033 | 21 | 235 | 0.0 | 16.1 | 0.00 | 0.00 | 0.00 | 30 | 1002.4 |
| 20260508204727 | 21 | 235 | 0.0 | 16.1 | 0.00 | 0.00 | 0.00 | 29 | 1002.3 |
| 20260508204527 | 21 | 217 | 0.0 | 16.1 | 0.00 | 0.00 | 0.00 | 29 | 1002.4 |
| 20260508204323 | 21 | 220 | 0.0 | 16.1 | 0.00 | 0.00 | 0.00 | 29 | 1002.4 |
| 20260508204226 | 21 | 196 | 0.0 | 14.5 | 0.00 | 0.00 | 0.00 | 29 | 1002.3 |
| 20260508204126 | 21 | 326 | 0.0 | 8.0 | 0.00 | 0.00 | 0.00 | 29 | 1002.4 |
| 20260508204032 | 21 | 238 | 0.0 | 14.5 | 0.00 | 0.00 | 0.00 | 33 | 1002.5 |
| 20260508204008 | 21 | 230 | 0.0 | 9.7 | 0.00 | 0.00 | 0.00 | 30 | 1002.5 |
| 20260508203938 | 21 | 238 | 0.0 | 14.5 | 0.00 | 0.00 | 0.00 | 33 | 1002.5 |
| 20260508203524 | 21 | 238 | 0.0 | 14.5 | 0.00 | 0.00 | 0.00 | 31 | 1002.6 |
| 20260508203427 | 21 | 238 | 0.0 | 14.5 | 0.00 | 0.00 | 0.00 | 29 | 1002.6 |
| 20260508203227 | 21 | 240 | 0.0 | 14.5 | 0.00 | 0.00 | 0.00 | 29 | 1002.5 |
| 20260508203124 | 21 | 244 | 0.0 | 14.5 | 0.00 | 0.00 | 0.00 | 29 | 1002.6 |
| 20260508203033 | 21 | 224 | 0.0 | 14.5 | 0.00 | 0.00 | 0.00 | 28 | 1002.6 |
| 20260508203005 | 21 | 268 | 0.0 | 14.5 | 0.00 | 0.00 | 0.00 | 29 | 1002.8 |
| 20260508202938 | 21 | 224 | 0.0 | 14.5 | 0.00 | 0.00 | 0.00 | 28 | 1002.6 |
| 20260508202524 | 21 | 248 | 0.0 | 11.3 | 0.00 | 0.00 | 0.00 | 29 | 1002.7 |
| 20260508202323 | 21 | 245 | 0.0 | 11.3 | 0.00 | 0.00 | 0.00 | 27 | 1002.8 |
| 20260508202229 | 21 | 210 | 0.0 | 14.5 | 0.00 | 0.00 | 0.00 | 28 | 1002.8 |
| 20260508202125 | 21 | 210 | 0.0 | 14.5 | 0.00 | 0.00 | 0.00 | 29 | 1002.8 |
| 20260508202017 | 21 | 255 | 0.0 | 14.5 | 0.00 | 0.00 | 0.00 | 29 | 1003.0 |
| 20260508202006 | 21 | 216 | 0.0 | 14.5 | 0.00 | 0.00 | 0.00 | 29 | 1002.8 |
| 20260508201938 | 21 | 255 | 0.0 | 14.5 | 0.00 | 0.00 | 0.00 | 29 | 1003.0 |
| 20260508201525 | 21 | 248 | 0.0 | 14.5 | 0.00 | 0.00 | 0.00 | 29 | 1003.0 |
| 20260508201427 | 21 | 251 | 0.0 | 14.5 | 0.00 | 0.00 | 0.00 | 29 | 1002.9 |
| 20260508201228 | 21 | 230 | 0.0 | 11.3 | 0.00 | 0.00 | 0.00 | 29 | 1002.9 |
| 20260508201124 | 21 | 243 | 0.0 | 11.3 | 0.00 | 0.00 | 0.00 | 32 | 1002.9 |
| 20260508200924 | 21 | 254 | 0.0 | 11.3 | 0.00 | 0.00 | 0.00 | 30 | 1003.0 |
| 20260508200727 | 21 | 234 | 0.0 | 11.3 | 0.00 | 0.00 | 0.00 | 31 | 1002.9 |
| 20260508200523 | 21 | 235 | 0.0 | 11.3 | 0.00 | 0.00 | 0.00 | 30 | 1003.0 |
| 20260508200325 | 21 | 244 | 0.0 | 9.7 | 0.00 | 0.00 | 0.00 | 28 | 1003.0 |
| 20260508200226 | 21 | 257 | 0.0 | 9.7 | 0.00 | 0.00 | 0.00 | 27 | 1003.2 |
| 20260508200122 | 21 | 251 | 0.0 | 9.7 | 0.00 | 0.00 | 0.00 | 31 | 1003.0 |
| 20260508200036 | 22 | 247 | 0.0 | 9.7 | 0.00 | 0.00 | 0.00 | 29 | 1003.1 |
| 20260508200031 | 22 | 247 | 0.0 | 9.7 | 0.00 | 0.00 | 0.00 | 29 | 1003.0 |
| 20260508200003 | 21 | 207 | 0.0 | 8.0 | 0.00 | 0.00 | 0.00 | 31 | 1003.0 |
| 20260508195518 | 22 | 340 | 0.0 | 9.7 | 0.00 | 0.00 | 0.00 | 31 | 1003.2 |
| 20260508195319 | 22 | 221 | 0.0 | 9.7 | 0.00 | 0.00 | 0.00 | 31 | 1003.2 |
| 20260508195227 | 22 | 172 | 0.0 | 9.7 | 0.00 | 0.00 | 0.00 | 28 | 1003.2 |
| 20260508195115 | 22 | 231 | 0.0 | 9.7 | 0.00 | 0.00 | 0.00 | 29 | 1003.2 |
| 20260508195030 | 22 | 233 | 0.0 | 9.7 | 0.00 | 0.00 | 0.00 | 28 | 1003.3 |
| 20260508195000 | 22 | 149 | 0.0 | 9.7 | 0.00 | 0.00 | 0.00 | 34 | 1003.3 |
| 20260508194709 | 22 | 266 | 0.0 | 9.7 | 0.00 | 0.00 | 0.00 | 28 | 1003.4 |
| 20260508194509 | 21 | 250 | 0.0 | 16.1 | 0.00 | 0.00 | 0.00 | 32 | 1003.4 |
| 20260508194307 | 21 | 234 | 0.0 | 16.1 | 0.00 | 0.00 | 0.00 | 29 | 1003.4 |
| 20260508194227 | 21 | 250 | 0.0 | 16.1 | 0.00 | 0.00 | 0.00 | 29 | 1003.4 |
| 20260508194103 | 21 | 250 | 0.0 | 16.1 | 0.00 | 0.00 | 0.00 | 29 | 1003.4 |
| 20260508194018 | 20 | 252 | 0.0 | 16.1 | 0.00 | 0.00 | 0.00 | 29 | 1003.5 |
| 20260508193953 | 20 | 252 | 0.0 | 16.1 | 0.00 | 0.00 | 0.00 | 29 | 1003.5 |
| 20260508193648 | 20 | 252 | 0.0 | 16.1 | 0.00 | 0.00 | 0.00 | 29 | 1003.5 |
| 20260508193449 | 20 | 241 | 0.0 | 14.5 | 0.00 | 0.00 | 0.00 | 32 | 1003.6 |
| 20260508193247 | 20 | 221 | 0.0 | 14.5 | 0.00 | 0.00 | 0.00 | 29 | 1003.6 |
| 20260508193226 | 20 | 220 | 0.0 | 14.5 | 0.00 | 0.00 | 0.00 | 29 | 1003.6 |
| 20260508193144 | 20 | 259 | 0.0 | 14.5 | 0.00 | 0.00 | 0.00 | 31 | 1003.6 |
| 20260508193028 | 20 | 259 | 0.0 | 14.5 | 0.00 | 0.00 | 0.00 | 31 | 1003.6 |
| 20260508192956 | 20 | 251 | 0.0 | 14.5 | 0.00 | 0.00 | 0.00 | 29 | 1003.7 |
| 20260508192647 | 20 | 204 | 0.0 | 14.5 | 0.00 | 0.00 | 0.00 | 31 | 1003.7 |
| 20260508192446 | 20 | 237 | 0.0 | 14.5 | 0.00 | 0.00 | 0.00 | 33 | 1003.7 |
| 20260508192246 | 20 | 237 | 0.0 | 16.1 | 0.00 | 0.00 | 0.00 | 29 | 1003.7 |
| 20260508192227 | 20 | 251 | 0.0 | 16.1 | 0.00 | 0.00 | 0.00 | 29 | 1003.7 |
| 20260508192045 | 20 | 248 | 0.0 | 16.1 | 0.00 | 0.00 | 0.00 | 28 | 1003.7 |
| 20260508191847 | 20 | 241 | 0.0 | 17.7 | 0.00 | 0.00 | 0.00 | 29 | 1003.7 |
| 20260508191719 | 20 | 255 | 0.0 | 17.7 | 0.00 | 0.00 | 0.00 | 31 | 1003.7 |
| 20260508191641 | 20 | 258 | 0.0 | 17.7 | 0.00 | 0.00 | 0.00 | 30 | 1003.7 |
| 20260508191604 | 20 | 309 | 0.0 | 17.7 | 0.00 | 0.00 | 0.00 | 29 | 1003.7 |
| 20260508191515 | 20 | 210 | 0.0 | 17.7 | 0.00 | 0.00 | 0.00 | 29 | 1003.7 |
| 20260508191437 | 20 | 216 | 0.0 | 17.7 | 0.00 | 0.00 | 0.00 | 29 | 1003.6 |
| 20260508191040 | 20 | 227 | 0.0 | 17.7 | 0.00 | 0.00 | 0.00 | 30 | 1003.8 |
| 20260508190840 | 20 | 219 | 0.0 | 16.1 | 0.00 | 0.00 | 0.00 | 30 | 1003.9 |
| 20260508190719 | 20 | 252 | 0.0 | 16.1 | 0.00 | 0.00 | 0.00 | 27 | 1003.8 |
| 20260508190642 | 20 | 257 | 0.0 | 16.1 | 0.00 | 0.00 | 0.00 | 28 | 1003.8 |
| 20260508190522 | 21 | 255 | 0.0 | 14.5 | 0.00 | 0.00 | 0.00 | 31 | 1003.8 |
| 20260508190502 | 21 | 248 | 0.0 | 14.5 | 0.00 | 0.00 | 0.00 | 28 | 1003.9 |
| 20260508190434 | 21 | 212 | 0.0 | 14.5 | 0.00 | 0.00 | 0.00 | 31 | 1003.8 |
| 20260508190033 | 21 | 255 | 0.0 | 14.5 | 0.00 | 0.00 | 0.00 | 29 | 1003.8 |
| 20260508185832 | 21 | 285 | 0.0 | 14.5 | 0.00 | 0.00 | 0.00 | 32 | 1003.8 |
| 20260508185712 | 21 | 254 | 0.0 | 14.5 | 0.00 | 0.00 | 0.00 | 27 | 1003.8 |
| 20260508185632 | 21 | 0 | 0.0 | 14.5 | 0.00 | 0.00 | 0.00 | 30 | 1003.8 |
| 20260508185515 | 21 | 266 | 0.0 | 14.5 | 0.00 | 0.00 | 0.00 | 28 | 1003.8 |
| 20260508185456 | 21 | 271 | 0.0 | 14.5 | 0.00 | 0.00 | 0.00 | 30 | 1003.7 |
| 20260508185428 | 21 | 258 | 0.0 | 14.5 | 0.00 | 0.00 | 0.00 | 29 | 1003.9 |
| 20260508185126 | 21 | 259 | 0.0 | 14.5 | 0.00 | 0.00 | 0.00 | 29 | 1003.9 |
| 20260508184828 | 21 | 261 | 0.0 | 14.5 | 0.00 | 0.00 | 0.00 | 32 | 1003.8 |
| 20260508184711 | 21 | 265 | 0.0 | 14.5 | 0.00 | 0.00 | 0.00 | 28 | 1003.9 |
| 20260508184629 | 20 | 282 | 0.0 | 14.5 | 0.00 | 0.00 | 0.00 | 31 | 1003.9 |
| 20260508184427 | 20 | 247 | 0.0 | 14.5 | 0.00 | 0.00 | 0.00 | 29 | 1004.0 |
| 20260508184227 | 21 | 228 | 0.0 | 19.3 | 0.00 | 0.00 | 0.00 | 29 | 1003.9 |
| 20260508184205 | 21 | 251 | 0.0 | 19.3 | 0.00 | 0.00 | 0.00 | 29 | 1003.9 |
| 20260508184031 | 21 | 248 | 0.0 | 19.3 | 0.00 | 0.00 | 0.00 | 27 | 1004.0 |
| 20260508184000 | 21 | 276 | 0.0 | 20.9 | 0.00 | 0.00 | 0.00 | 29 | 1004.2 |
| 20260508183934 | 21 | 238 | 0.0 | 20.9 | 0.00 | 0.00 | 0.00 | 28 | 1004.0 |
| 20260508183623 | 21 | 309 | 0.0 | 20.9 | 0.00 | 0.00 | 0.00 | 29 | 1004.2 |
| 20260508183526 | 21 | 250 | 0.0 | 22.5 | 0.00 | 0.00 | 0.00 | 30 | 1004.3 |
| 20260508183222 | 21 | 262 | 0.0 | 22.5 | 0.00 | 0.00 | 0.00 | 28 | 1004.3 |
| 20260508183207 | 21 | 262 | 0.0 | 22.5 | 0.00 | 0.00 | 0.00 | 28 | 1004.2 |
| 20260508183009 | 21 | 230 | 0.0 | 27.4 | 0.00 | 0.00 | 0.00 | 29 | 1004.2 |
| 20260508183002 | 21 | 223 | 0.0 | 27.4 | 0.00 | 0.00 | 0.00 | 29 | 1004.2 |
| 20260508182930 | 21 | 217 | 0.0 | 27.4 | 0.00 | 0.00 | 0.00 | 29 | 1004.3 |
| 20260508182610 | 21 | 245 | 0.0 | 27.4 | 0.00 | 0.00 | 0.00 | 30 | 1004.3 |
| 20260508182408 | 21 | 235 | 0.0 | 27.4 | 0.00 | 0.00 | 0.00 | 31 | 1004.3 |
| 20260508182203 | 21 | 237 | 0.0 | 27.4 | 0.00 | 0.00 | 0.00 | 30 | 1004.2 |
| 20260508182011 | 21 | 231 | 0.0 | 17.7 | 0.00 | 0.00 | 0.00 | 28 | 1004.3 |
| 20260508182006 | 21 | 235 | 0.0 | 20.9 | 0.00 | 0.00 | 0.00 | 30 | 1004.3 |
| 20260508181934 | 21 | 233 | 0.0 | 20.9 | 0.00 | 0.00 | 0.00 | 29 | 1004.3 |
| 20260508181605 | 21 | 250 | 0.0 | 17.7 | 0.00 | 0.00 | 0.00 | 28 | 1004.4 |
| 20260508181403 | 21 | 265 | 0.0 | 16.1 | 0.00 | 0.00 | 0.00 | 26 | 1004.5 |
| 20260508181203 | 21 | 252 | 0.0 | 16.1 | 0.00 | 0.00 | 0.00 | 29 | 1004.4 |
| 20260508181002 | 20 | 271 | 0.0 | 16.1 | 0.00 | 0.00 | 0.00 | 27 | 1004.5 |
| 20260508180806 | 21 | 259 | 0.0 | 16.1 | 0.00 | 0.00 | 0.00 | 28 | 1004.6 |
| 20260508180708 | 21 | 258 | 0.0 | 16.1 | 0.00 | 0.00 | 0.00 | 28 | 1004.6 |
| 20260508180605 | 21 | 258 | 0.0 | 16.1 | 0.00 | 0.00 | 0.00 | 28 | 1004.7 |
| 20260508180459 | 21 | 272 | 0.0 | 16.1 | 0.00 | 0.00 | 0.00 | 29 | 1004.7 |
| 20260508180201 | 20 | 227 | 0.0 | 19.3 | 0.00 | 0.00 | 0.00 | 31 | 1004.7 |
| 20260508180133 | 20 | 237 | 0.0 | 19.3 | 0.00 | 0.00 | 0.00 | 31 | 1004.7 |
| 20260508180002 | 20 | 234 | 0.0 | 25.7 | 0.00 | 0.00 | 0.00 | 28 | 1004.8 |
| 20260508175800 | 20 | 231 | 0.0 | 25.7 | 0.00 | 0.00 | 0.00 | 31 | 1004.7 |
| 20260508175632 | 20 | 292 | 0.0 | 25.7 | 0.00 | 0.00 | 0.00 | 27 | 1004.7 |
| 20260508175601 | 21 | 251 | 0.0 | 25.7 | 0.00 | 0.00 | 0.00 | 32 | 1004.8 |
| 20260508175401 | 21 | 223 | 0.0 | 25.7 | 0.00 | 0.00 | 0.00 | 34 | 1004.8 |
| 20260508175202 | 21 | 250 | 0.0 | 25.7 | 0.00 | 0.00 | 0.00 | 30 | 1004.8 |
| 20260508175136 | 21 | 271 | 0.0 | 25.7 | 0.00 | 0.00 | 0.00 | 29 | 1004.8 |
| 20260508174959 | 21 | 250 | 0.0 | 22.5 | 0.00 | 0.00 | 0.00 | 30 | 1004.9 |
| 20260508174856 | 20 | 259 | 0.0 | 22.5 | 0.00 | 0.00 | 0.00 | 30 | 1004.9 |
| 20260508174630 | 21 | 231 | 0.0 | 22.5 | 0.00 | 0.00 | 0.00 | 29 | 1005.0 |
| 20260508174556 | 21 | 281 | 0.0 | 22.5 | 0.00 | 0.00 | 0.00 | 29 | 1004.9 |
| 20260508174355 | 21 | 268 | 0.0 | 22.5 | 0.00 | 0.00 | 0.00 | 30 | 1004.9 |
| 20260508174153 | 21 | 282 | 0.0 | 16.1 | 0.00 | 0.00 | 0.00 | 29 | 1004.9 |
| 20260508174131 | 21 | 223 | 0.0 | 16.1 | 0.00 | 0.00 | 0.00 | 28 | 1004.9 |
| 20260508173955 | 21 | 230 | 0.0 | 16.1 | 0.00 | 0.00 | 0.00 | 29 | 1005.1 |
| 20260508173752 | 21 | 257 | 0.0 | 19.3 | 0.00 | 0.00 | 0.00 | 28 | 1005.2 |
| 20260508173631 | 21 | 164 | 0.0 | 19.3 | 0.00 | 0.00 | 0.00 | 35 | 1005.1 |
| 20260508173552 | 21 | 0 | 0.0 | 19.3 | 0.00 | 0.00 | 0.00 | 33 | 1005.1 |
| 20260508173353 | 20 | 8 | 0.0 | 20.9 | 0.00 | 0.00 | 0.00 | 30 | 1005.2 |
| 20260508173246 | 20 | 206 | 0.0 | 20.9 | 0.00 | 0.00 | 0.00 | 30 | 1005.2 |
| 20260508173131 | 20 | 202 | 0.0 | 20.9 | 0.00 | 0.00 | 0.00 | 30 | 1005.2 |
| 20260508172950 | 20 | 245 | 0.0 | 20.9 | 0.00 | 0.00 | 0.00 | 29 | 1005.4 |
| 20260508172750 | 20 | 245 | 0.0 | 20.9 | 0.00 | 0.00 | 0.00 | 32 | 1005.3 |
| 20260508172631 | 20 | 234 | 0.0 | 20.9 | 0.00 | 0.00 | 0.00 | 29 | 1005.4 |
| 20260508172551 | 20 | 227 | 0.0 | 20.9 | 0.00 | 0.00 | 0.00 | 31 | 1005.3 |
| 20260508172349 | 20 | 252 | 0.0 | 16.1 | 0.00 | 0.00 | 0.00 | 35 | 1005.4 |
| 20260508172153 | 20 | 290 | 0.0 | 16.1 | 0.00 | 0.00 | 0.00 | 29 | 1005.4 |
| 20260508172132 | 20 | 283 | 0.0 | 16.1 | 0.00 | 0.00 | 0.00 | 29 | 1005.4 |
| 20260508171950 | 20 | 233 | 0.0 | 16.1 | 0.00 | 0.00 | 0.00 | 33 | 1005.5 |
| 20260508171932 | 20 | 237 | 0.0 | 11.3 | 0.00 | 0.00 | 0.00 | 31 | 1005.5 |
| 20260508171928 | 20 | 217 | 0.0 | 8.0 | 0.00 | 0.00 | 0.00 | 34 | 1005.5 |
| 20260508171903 | 20 | 248 | 0.0 | 16.1 | 0.00 | 0.00 | 0.00 | 31 | 1005.5 |
| 20260508171347 | 20 | 195 | 0.0 | 8.0 | 0.00 | 0.00 | 0.00 | 31 | 1005.5 |
| 20260508171147 | 20 | 285 | 0.0 | 11.3 | 0.00 | 0.00 | 0.00 | 32 | 1005.5 |
| 20260508171131 | 20 | 272 | 0.0 | 14.5 | 0.00 | 0.00 | 0.00 | 32 | 1005.5 |
| 20260508170946 | 20 | 240 | 0.0 | 14.5 | 0.00 | 0.00 | 0.00 | 34 | 1005.6 |
| 20260508170933 | 19 | 250 | 0.0 | 14.5 | 0.00 | 0.00 | 0.00 | 33 | 1005.7 |
| 20260508170901 | 19 | 247 | 0.0 | 14.5 | 0.00 | 0.00 | 0.00 | 31 | 1005.7 |
| 20260508170544 | 19 | 234 | 0.0 | 14.5 | 0.00 | 0.00 | 0.00 | 36 | 1005.8 |
| 20260508170335 | 19 | 234 | 0.0 | 14.5 | 0.00 | 0.00 | 0.00 | 32 | 1005.7 |
| 20260508170133 | 19 | 214 | 0.0 | 17.7 | 0.00 | 0.00 | 0.00 | 32 | 1005.8 |
| 20260508170129 | 19 | 217 | 0.0 | 17.7 | 0.00 | 0.00 | 0.00 | 32 | 1005.8 |
| 20260508170035 | 19 | 234 | 0.0 | 17.7 | 0.00 | 0.00 | 0.00 | 32 | 1005.9 |
| 20260508165928 | 19 | 320 | 0.0 | 25.7 | 0.00 | 0.00 | 0.00 | 32 | 1005.9 |
| 20260508165856 | 19 | 240 | 0.0 | 17.7 | 0.00 | 0.00 | 0.00 | 32 | 1005.9 |
| 20260508165529 | 19 | 224 | 0.0 | 25.7 | 0.00 | 0.00 | 0.00 | 31 | 1005.9 |
| 20260508165326 | 19 | 226 | 0.0 | 25.7 | 0.00 | 0.00 | 0.00 | 31 | 1005.9 |
| 20260508165130 | 20 | 257 | 0.0 | 25.7 | 0.00 | 0.00 | 0.00 | 33 | 1006.0 |
| 20260508165124 | 20 | 255 | 0.0 | 25.7 | 0.00 | 0.00 | 0.00 | 33 | 1006.0 |
| 20260508164924 | 20 | 255 | 0.0 | 25.7 | 0.00 | 0.00 | 0.00 | 36 | 1006.0 |
| 20260508164723 | 19 | 193 | 0.0 | 22.5 | 0.00 | 0.00 | 0.00 | 32 | 1006.0 |
| 20260508164628 | 19 | 274 | 0.0 | 11.3 | 0.00 | 0.00 | 0.00 | 36 | 1005.9 |
| 20260508164620 | 18 | 210 | 0.0 | 11.3 | 0.00 | 0.00 | 0.00 | 34 | 1006.0 |
| 20260508164326 | 18 | 210 | 0.0 | 11.3 | 0.00 | 0.00 | 0.00 | 30 | 1006.0 |
| 20260508164122 | 18 | 210 | 0.0 | 11.3 | 0.00 | 0.00 | 0.00 | 30 | 1006.1 |
| 20260508163923 | 18 | 235 | 0.0 | 11.3 | 0.00 | 0.00 | 0.00 | 35 | 1006.1 |
| 20260508163919 | 18 | 252 | 0.0 | 11.3 | 0.00 | 0.00 | 0.00 | 33 | 1006.3 |
| 20260508163852 | 18 | 224 | 0.0 | 11.3 | 0.00 | 0.00 | 0.00 | 33 | 1006.2 |
| 20260508163510 | 18 | 292 | 0.0 | 11.3 | 0.00 | 0.00 | 0.00 | 34 | 1006.3 |
| 20260508163307 | 18 | 230 | 0.0 | 11.3 | 0.00 | 0.00 | 0.00 | 35 | 1006.2 |
| 20260508163130 | 18 | 251 | 0.0 | 11.3 | 0.00 | 0.00 | 0.00 | 39 | 1006.2 |
| 20260508163107 | 18 | 251 | 0.0 | 11.3 | 0.00 | 0.00 | 0.00 | 39 | 1006.1 |
| 20260508163012 | 18 | 217 | 0.0 | 11.3 | 0.00 | 0.00 | 0.00 | 36 | 1006.2 |
| 20260508162916 | 18 | 220 | 0.0 | 11.3 | 0.00 | 0.00 | 0.00 | 35 | 1006.2 |
| 20260508162841 | 18 | 252 | 0.0 | 11.3 | 0.00 | 0.00 | 0.00 | 36 | 1006.2 |
| 20260508162506 | 18 | 241 | 0.0 | 11.3 | 0.00 | 0.00 | 0.00 | 35 | 1006.2 |
| 20260508162306 | 17 | 271 | 0.0 | 11.3 | 0.00 | 0.00 | 0.00 | 35 | 1006.3 |
| 20260508162125 | 17 | 264 | 0.0 | 11.3 | 0.00 | 0.00 | 0.00 | 35 | 1006.4 |
| 20260508162105 | 17 | 252 | 0.0 | 11.3 | 0.00 | 0.00 | 0.00 | 36 | 1006.3 |
| 20260508161934 | 18 | 261 | 0.0 | 11.3 | 0.00 | 0.00 | 0.00 | 36 | 1006.4 |
| 20260508161923 | 18 | 220 | 0.0 | 11.3 | 0.00 | 0.00 | 0.00 | 35 | 1006.3 |
| 20260508161855 | 18 | 261 | 0.0 | 11.3 | 0.00 | 0.00 | 0.00 | 36 | 1006.4 |
| 20260508161506 | 18 | 219 | 0.0 | 11.3 | 0.00 | 0.00 | 0.00 | 36 | 1006.3 |
| 20260508161239 | 18 | 217 | 0.0 | 20.9 | 0.00 | 0.00 | 0.00 | 36 | 1006.4 |
| 20260508161120 | 18 | 224 | 0.0 | 20.9 | 0.00 | 0.00 | 0.00 | 36 | 1006.4 |
| 20260508161031 | 18 | 245 | 0.0 | 20.9 | 0.00 | 0.00 | 0.00 | 39 | 1006.5 |
| 20260508160829 | 18 | 254 | 0.0 | 20.9 | 0.00 | 0.00 | 0.00 | 36 | 1006.5 |
| 20260508160621 | 18 | 257 | 0.0 | 20.9 | 0.00 | 0.00 | 0.00 | 37 | 1006.5 |
| 20260508160430 | 18 | 207 | 0.0 | 20.9 | 0.00 | 0.00 | 0.00 | 37 | 1006.5 |
| 20260508160229 | 18 | 248 | 0.0 | 14.5 | 0.00 | 0.00 | 0.00 | 38 | 1006.4 |
| 20260508160139 | 17 | 248 | 0.0 | 9.7 | 0.00 | 0.00 | 0.00 | 39 | 1006.4 |
| 20260508160122 | 18 | 237 | 0.0 | 14.5 | 0.00 | 0.00 | 0.00 | 42 | 1006.6 |
| 20260508155832 | 17 | 237 | 0.0 | 9.7 | 0.00 | 0.00 | 0.00 | 41 | 1006.5 |
| 20260508155622 | 16 | 224 | 0.0 | 9.7 | 0.00 | 0.00 | 0.00 | 40 | 1006.6 |
| 20260508155433 | 16 | 224 | 0.0 | 11.3 | 0.00 | 0.00 | 0.00 | 40 | 1006.7 |
| 20260508155232 | 16 | 265 | 0.0 | 19.3 | 0.00 | 0.00 | 0.00 | 38 | 1006.6 |
| 20260508155114 | 16 | 264 | 0.0 | 19.3 | 0.00 | 0.00 | 0.00 | 39 | 1006.7 |
| 20260508155034 | 16 | 214 | 0.0 | 19.3 | 0.00 | 0.00 | 0.00 | 39 | 1006.7 |
| 20260508154833 | 16 | 186 | 0.0 | 19.3 | 0.00 | 0.00 | 0.00 | 39 | 1006.7 |
| 20260508154623 | 16 | 240 | 0.0 | 19.3 | 0.00 | 0.00 | 0.00 | 39 | 1006.8 |
| 20260508154614 | 16 | 212 | 0.0 | 19.3 | 0.00 | 0.00 | 0.00 | 39 | 1006.8 |
| 20260508154520 | 16 | 248 | 0.0 | 19.3 | 0.00 | 0.00 | 0.00 | 37 | 1006.7 |
| 20260508154205 | 16 | 241 | 0.0 | 16.1 | 0.00 | 0.00 | 0.00 | 37 | 1006.7 |
| 20260508154116 | 16 | 252 | 0.0 | 16.1 | 0.00 | 0.00 | 0.00 | 37 | 1006.7 |
| 20260508154005 | 16 | 223 | 0.0 | 19.3 | 0.00 | 0.00 | 0.00 | 37 | 1006.7 |
| 20260508153802 | 16 | 241 | 0.0 | 19.3 | 0.00 | 0.00 | 0.00 | 37 | 1006.8 |
| 20260508153603 | 16 | 259 | 0.0 | 19.3 | 0.00 | 0.00 | 0.00 | 39 | 1006.8 |
| 20260508153401 | 16 | 199 | 0.0 | 19.3 | 0.00 | 0.00 | 0.00 | 40 | 1006.8 |
| 20260508153202 | 16 | 219 | 0.0 | 19.3 | 0.00 | 0.00 | 0.00 | 36 | 1006.9 |
| 20260508153104 | 16 | 219 | 0.0 | 19.3 | 0.00 | 0.00 | 0.00 | 39 | 1006.9 |
| 20260508153003 | 16 | 237 | 0.0 | 17.7 | 0.00 | 0.00 | 0.00 | 40 | 1006.9 |
| 20260508152736 | 16 | 221 | 0.0 | 17.7 | 0.00 | 0.00 | 0.00 | 38 | 1006.8 |
| 20260508152604 | 16 | 281 | 0.0 | 19.3 | 0.00 | 0.00 | 0.00 | 37 | 1006.9 |
| 20260508152534 | 16 | 213 | 0.0 | 19.3 | 0.00 | 0.00 | 0.00 | 38 | 1006.9 |
| 20260508152330 | 16 | 223 | 0.0 | 19.3 | 0.00 | 0.00 | 0.00 | 38 | 1007.0 |
| 20260508152131 | 16 | 238 | 0.0 | 19.3 | 0.00 | 0.00 | 0.00 | 40 | 1006.9 |
| 20260508152106 | 16 | 251 | 0.0 | 19.3 | 0.00 | 0.00 | 0.00 | 40 | 1006.9 |
| 20260508152032 | 16 | 226 | 0.0 | 19.3 | 0.00 | 0.00 | 0.00 | 40 | 1006.9 |
| 20260508151727 | 15 | 233 | 0.0 | 19.3 | 0.00 | 0.00 | 0.00 | 39 | 1006.9 |
| 20260508151604 | 15 | 190 | 0.0 | 16.1 | 0.00 | 0.00 | 0.00 | 39 | 1006.9 |
| 20260508151524 | 15 | 262 | 0.0 | 16.1 | 0.00 | 0.00 | 0.00 | 39 | 1006.9 |
| 20260508151324 | 15 | 196 | 0.0 | 16.1 | 0.00 | 0.00 | 0.00 | 39 | 1007.0 |
| 20260508151125 | 15 | 258 | 0.0 | 16.1 | 0.00 | 0.00 | 0.00 | 39 | 1007.0 |
| 20260508151103 | 15 | 258 | 0.0 | 16.1 | 0.00 | 0.00 | 0.00 | 39 | 1007.1 |
| 20260508150906 | 15 | 244 | 0.0 | 16.1 | 0.00 | 0.00 | 0.00 | 39 | 1007.0 |
| 20260508150709 | 15 | 223 | 0.0 | 16.1 | 0.00 | 0.00 | 0.00 | 39 | 1007.0 |
| 20260508150603 | 15 | 183 | 0.0 | 17.7 | 0.00 | 0.00 | 0.00 | 41 | 1007.1 |
| 20260508150511 | 15 | 186 | 0.0 | 17.7 | 0.00 | 0.00 | 0.00 | 40 | 1007.1 |
| 20260508150409 | 15 | 206 | 0.0 | 17.7 | 0.00 | 0.00 | 0.00 | 41 | 1007.1 |
| 20260508145906 | 15 | 206 | 0.0 | 17.7 | 0.00 | 0.00 | 0.00 | 40 | 1007.1 |
| 20260508145701 | 15 | 223 | 0.0 | 19.3 | 0.00 | 0.00 | 0.00 | 39 | 1007.1 |
| 20260508145601 | 15 | 257 | 0.0 | 19.3 | 0.00 | 0.00 | 0.00 | 39 | 1007.1 |
| 20260508145501 | 15 | 220 | 0.0 | 19.3 | 0.00 | 0.00 | 0.00 | 40 | 1007.1 |
| 20260508145359 | 15 | 247 | 0.0 | 19.3 | 0.00 | 0.00 | 0.00 | 40 | 1007.1 |
| 20260508145101 | 15 | 240 | 0.0 | 19.3 | 0.00 | 0.00 | 0.00 | 44 | 1007.2 |
| 20260508144901 | 15 | 224 | 0.0 | 19.3 | 0.00 | 0.00 | 0.00 | 41 | 1007.1 |
| 20260508144702 | 15 | 206 | 0.0 | 19.3 | 0.00 | 0.00 | 0.00 | 40 | 1007.2 |
| 20260508144602 | 15 | 226 | 0.0 | 19.3 | 0.00 | 0.00 | 0.00 | 41 | 1007.2 |
| 20260508144501 | 15 | 230 | 0.0 | 19.3 | 0.00 | 0.00 | 0.00 | 40 | 1007.2 |
| 20260508144301 | 15 | 207 | 0.0 | 16.1 | 0.00 | 0.00 | 0.00 | 41 | 1007.4 |
| 20260508144102 | 14 | 212 | 0.0 | 16.1 | 0.00 | 0.00 | 0.00 | 41 | 1007.2 |
| 20260508143838 | 14 | 228 | 0.0 | 19.3 | 0.00 | 0.00 | 0.00 | 42 | 1007.3 |
| 20260508143738 | 14 | 258 | 0.0 | 19.3 | 0.00 | 0.00 | 0.00 | 42 | 1007.2 |
| 20260508143546 | 14 | 204 | 0.0 | 19.3 | 0.00 | 0.00 | 0.00 | 41 | 1007.3 |
| 20260508143436 | 14 | 206 | 0.0 | 19.3 | 0.00 | 0.00 | 0.00 | 42 | 1007.3 |
| 20260508143230 | 14 | 193 | 0.0 | 19.3 | 0.00 | 0.00 | 0.00 | 42 | 1007.3 |
| 20260508143046 | 14 | 193 | 0.0 | 19.3 | 0.00 | 0.00 | 0.00 | 42 | 1007.2 |
| 20260508143030 | 14 | 192 | 0.0 | 19.3 | 0.00 | 0.00 | 0.00 | 42 | 1007.2 |
| 20260508142830 | 14 | 216 | 0.0 | 19.3 | 0.00 | 0.00 | 0.00 | 43 | 1007.2 |
| 20260508142631 | 14 | 200 | 0.0 | 19.3 | 0.00 | 0.00 | 0.00 | 42 | 1007.3 |
| 20260508142545 | 14 | 209 | 0.0 | 19.3 | 0.00 | 0.00 | 0.00 | 42 | 1007.3 |
| 20260508142430 | 13 | 214 | 0.0 | 19.3 | 0.00 | 0.00 | 0.00 | 42 | 1007.2 |
| 20260508142229 | 13 | 195 | 0.0 | 16.1 | 0.00 | 0.00 | 0.00 | 44 | 1007.3 |
| 20260508142129 | 13 | 206 | 0.0 | 16.1 | 0.00 | 0.00 | 0.00 | 44 | 1007.3 |
| 20260508142044 | 13 | 192 | 0.0 | 16.1 | 0.00 | 0.00 | 0.00 | 44 | 1007.3 |
| 20260508141826 | 13 | 206 | 0.0 | 16.1 | 0.00 | 0.00 | 0.00 | 44 | 1007.2 |
| 20260508141624 | 13 | 214 | 0.0 | 16.1 | 0.00 | 0.00 | 0.00 | 42 | 1007.3 |
| 20260508141546 | 13 | 213 | 0.0 | 22.5 | 0.00 | 0.00 | 0.00 | 43 | 1007.4 |
| 20260508141424 | 13 | 202 | 0.0 | 22.5 | 0.00 | 0.00 | 0.00 | 43 | 1007.3 |
| 20260508141225 | 13 | 240 | 0.0 | 22.5 | 0.00 | 0.00 | 0.00 | 43 | 1007.4 |
| 20260508141045 | 13 | 199 | 0.0 | 22.5 | 0.00 | 0.00 | 0.00 | 44 | 1007.4 |
| 20260508141023 | 13 | 245 | 0.0 | 22.5 | 0.00 | 0.00 | 0.00 | 43 | 1007.4 |
| 20260508140823 | 13 | 206 | 0.0 | 22.5 | 0.00 | 0.00 | 0.00 | 42 | 1007.4 |
| 20260508140616 | 13 | 209 | 0.0 | 22.5 | 0.00 | 0.00 | 0.00 | 43 | 1007.3 |
| 20260508140542 | 13 | 200 | 0.0 | 22.5 | 0.00 | 0.00 | 0.00 | 43 | 1007.3 |
| 20260508140417 | 13 | 197 | 0.0 | 22.5 | 0.00 | 0.00 | 0.00 | 43 | 1007.4 |
| 20260508140345 | 13 | 241 | 0.0 | 22.5 | 0.00 | 0.00 | 0.00 | 43 | 1007.3 |
| 20260508140339 | 13 | 241 | 0.0 | 22.5 | 0.00 | 0.00 | 0.00 | 42 | 1007.4 |
| 20260508140321 | 13 | 195 | 0.0 | 22.5 | 0.00 | 0.00 | 0.00 | 42 | 1007.3 |
| 20260508135850 | 13 | 221 | 0.0 | 19.3 | 0.00 | 0.00 | 0.00 | 42 | 1007.4 |
| 20260508135839 | 13 | 264 | 0.0 | 17.7 | 0.00 | 0.00 | 0.00 | 42 | 1007.4 |
| 20260508135809 | 13 | 221 | 0.0 | 19.3 | 0.00 | 0.00 | 0.00 | 43 | 1007.4 |
| 20260508135413 | 13 | 206 | 0.0 | 19.3 | 0.00 | 0.00 | 0.00 | 43 | 1007.4 |
| 20260508135214 | 13 | 203 | 0.0 | 19.3 | 0.00 | 0.00 | 0.00 | 43 | 1007.5 |
| 20260508135041 | 13 | 220 | 0.0 | 19.3 | 0.00 | 0.00 | 0.00 | 44 | 1007.4 |
| 20260508135013 | 13 | 235 | 0.0 | 19.3 | 0.00 | 0.00 | 0.00 | 44 | 1007.5 |
| 20260508134844 | 12 | 221 | 0.0 | 16.1 | 0.00 | 0.00 | 0.00 | 43 | 1007.5 |
| 20260508134831 | 12 | 258 | 0.0 | 19.3 | 0.00 | 0.00 | 0.00 | 42 | 1007.5 |
| 20260508134803 | 12 | 226 | 0.0 | 14.5 | 0.00 | 0.00 | 0.00 | 43 | 1007.5 |
| 20260508134506 | 12 | 193 | 0.0 | 17.7 | 0.00 | 0.00 | 0.00 | 43 | 1007.5 |
| 20260508134205 | 12 | 206 | 0.0 | 17.7 | 0.00 | 0.00 | 0.00 | 43 | 1007.5 |
| 20260508134038 | 12 | 257 | 0.0 | 17.7 | 0.00 | 0.00 | 0.00 | 44 | 1007.5 |
| 20260508134005 | 12 | 248 | 0.0 | 17.7 | 0.00 | 0.00 | 0.00 | 44 | 1007.5 |
| 20260508133839 | 12 | 210 | 0.0 | 17.7 | 0.00 | 0.00 | 0.00 | 45 | 1007.6 |
| 20260508133827 | 12 | 197 | 0.0 | 17.7 | 0.00 | 0.00 | 0.00 | 43 | 1007.5 |
| 20260508133758 | 12 | 183 | 0.0 | 17.7 | 0.00 | 0.00 | 0.00 | 45 | 1007.6 |
| 20260508133403 | 12 | 207 | 0.0 | 20.9 | 0.00 | 0.00 | 0.00 | 44 | 1007.6 |
| 20260508133203 | 12 | 214 | 0.0 | 20.9 | 0.00 | 0.00 | 0.00 | 44 | 1007.6 |
| 20260508133036 | 12 | 199 | 0.0 | 20.9 | 0.00 | 0.00 | 0.00 | 43 | 1007.6 |
| 20260508133005 | 12 | 217 | 0.0 | 20.9 | 0.00 | 0.00 | 0.00 | 43 | 1007.6 |
| 20260508132858 | 11 | 214 | 0.0 | 20.9 | 0.00 | 0.00 | 0.00 | 43 | 1007.6 |
| 20260508132838 | 11 | 214 | 0.0 | 20.9 | 0.00 | 0.00 | 0.00 | 43 | 1007.6 |
| 20260508132825 | 12 | 234 | 0.0 | 20.9 | 0.00 | 0.00 | 0.00 | 43 | 1007.6 |
| 20260508132405 | 11 | 259 | 0.0 | 20.9 | 0.00 | 0.00 | 0.00 | 44 | 1007.5 |
| 20260508132135 | 11 | 216 | 0.0 | 20.9 | 0.00 | 0.00 | 0.00 | 44 | 1007.6 |
| 20260508132034 | 11 | 203 | 0.0 | 20.9 | 0.00 | 0.00 | 0.00 | 44 | 1007.6 |
| 20260508131933 | 11 | 202 | 0.0 | 20.9 | 0.00 | 0.00 | 0.00 | 43 | 1007.5 |
| 20260508131836 | 11 | 233 | 0.0 | 20.9 | 0.00 | 0.00 | 0.00 | 44 | 1007.6 |
| 20260508131821 | 11 | 220 | 0.0 | 20.9 | 0.00 | 0.00 | 0.00 | 43 | 1007.6 |
| 20260508131745 | 11 | 233 | 0.0 | 20.9 | 0.00 | 0.00 | 0.00 | 44 | 1007.6 |
| 20260508131331 | 11 | 237 | 0.0 | 20.9 | 0.00 | 0.00 | 0.00 | 45 | 1007.6 |
| 20260508131131 | 11 | 248 | 0.0 | 20.9 | 0.00 | 0.00 | 0.00 | 43 | 1007.8 |
| 20260508131050 | 11 | 195 | 0.0 | 20.9 | 0.00 | 0.00 | 0.00 | 43 | 1007.6 |
| 20260508131031 | 11 | 200 | 0.0 | 20.9 | 0.00 | 0.00 | 0.00 | 43 | 1007.6 |
| 20260508130832 | 11 | 245 | 0.0 | 20.9 | 0.00 | 0.00 | 0.00 | 44 | 1007.6 |
| 20260508130820 | 11 | 195 | 0.0 | 20.9 | 0.00 | 0.00 | 0.00 | 44 | 1007.6 |
| 20260508130749 | 11 | 245 | 0.0 | 20.9 | 0.00 | 0.00 | 0.00 | 44 | 1007.6 |
| 20260508130332 | 11 | 219 | 0.0 | 20.9 | 0.00 | 0.00 | 0.00 | 44 | 1007.6 |
| 20260508130132 | 11 | 207 | 0.0 | 16.1 | 0.00 | 0.00 | 0.00 | 44 | 1007.8 |
| 20260508130034 | 11 | 216 | 0.0 | 14.5 | 0.00 | 0.00 | 0.00 | 46 | 1007.6 |
| 20260508125932 | 11 | 238 | 0.0 | 14.5 | 0.00 | 0.00 | 0.00 | 46 | 1007.6 |
| 20260508125805 | 11 | 234 | 0.0 | 19.3 | 0.00 | 0.00 | 0.00 | 45 | 1007.6 |
| 20260508125743 | 11 | 234 | 0.0 | 19.3 | 0.00 | 0.00 | 0.00 | 45 | 1007.6 |
| 20260508125327 | 11 | 217 | 0.0 | 19.3 | 0.00 | 0.00 | 0.00 | 44 | 1007.6 |
| 20260508125125 | 11 | 212 | 0.0 | 20.9 | 0.00 | 0.00 | 0.00 | 44 | 1007.6 |
| 20260508125035 | 11 | 247 | 0.0 | 20.9 | 0.00 | 0.00 | 0.00 | 45 | 1007.6 |
| 20260508124925 | 10 | 230 | 0.0 | 20.9 | 0.00 | 0.00 | 0.00 | 44 | 1007.8 |
| 20260508124724 | 10 | 245 | 0.0 | 20.9 | 0.00 | 0.00 | 0.00 | 45 | 1007.8 |
| 20260508124526 | 10 | 237 | 0.0 | 20.9 | 0.00 | 0.00 | 0.00 | 45 | 1007.8 |
| 20260508124324 | 10 | 227 | 0.0 | 20.9 | 0.00 | 0.00 | 0.00 | 45 | 1007.8 |
| 20260508124124 | 10 | 200 | 0.0 | 20.9 | 0.00 | 0.00 | 0.00 | 45 | 1007.6 |
| 20260508124040 | 10 | 185 | 0.0 | 20.9 | 0.00 | 0.00 | 0.00 | 45 | 1007.6 |
| 20260508124029 | 10 | 182 | 0.0 | 20.9 | 0.00 | 0.00 | 0.00 | 46 | 1007.8 |
| 20260508123724 | 10 | 183 | 0.0 | 20.9 | 0.00 | 0.00 | 0.00 | 45 | 1007.8 |
| 20260508123526 | 10 | 207 | 0.0 | 20.9 | 0.00 | 0.00 | 0.00 | 45 | 1007.8 |
| 20260508123324 | 10 | 202 | 0.0 | 20.9 | 0.00 | 0.00 | 0.00 | 45 | 1007.8 |
| 20260508123125 | 10 | 207 | 0.0 | 19.3 | 0.00 | 0.00 | 0.00 | 46 | 1007.8 |
| 20260508123035 | 10 | 223 | 0.0 | 19.3 | 0.00 | 0.00 | 0.00 | 46 | 1007.8 |
| 20260508122924 | 10 | 202 | 0.0 | 19.3 | 0.00 | 0.00 | 0.00 | 46 | 1007.8 |
| 20260508122725 | 10 | 199 | 0.0 | 19.3 | 0.00 | 0.00 | 0.00 | 49 | 1007.8 |
| 20260508122525 | 9 | 175 | 0.0 | 19.3 | 0.00 | 0.00 | 0.00 | 46 | 1007.6 |
| 20260508122424 | 9 | 204 | 0.0 | 17.7 | 0.00 | 0.00 | 0.00 | 46 | 1007.8 |
| 20260508122124 | 9 | 233 | 0.0 | 17.7 | 0.00 | 0.00 | 0.00 | 46 | 1007.8 |
| 20260508122033 | 9 | 220 | 0.0 | 17.7 | 0.00 | 0.00 | 0.00 | 46 | 1007.6 |
| 20260508121924 | 9 | 204 | 0.0 | 17.7 | 0.00 | 0.00 | 0.00 | 46 | 1007.6 |
| 20260508121724 | 9 | 228 | 0.0 | 17.7 | 0.00 | 0.00 | 0.00 | 46 | 1007.5 |
| 20260508121526 | 9 | 195 | 0.0 | 17.7 | 0.00 | 0.00 | 0.00 | 47 | 1007.6 |
| 20260508121324 | 9 | 195 | 0.0 | 17.7 | 0.00 | 0.00 | 0.00 | 47 | 1007.6 |
| 20260508121125 | 9 | 220 | 0.0 | 14.5 | 0.00 | 0.00 | 0.00 | 47 | 1007.6 |
| 20260508121032 | 9 | 228 | 0.0 | 14.5 | 0.00 | 0.00 | 0.00 | 47 | 1007.6 |
| 20260508120924 | 9 | 199 | 0.0 | 14.5 | 0.00 | 0.00 | 0.00 | 47 | 1007.6 |
| 20260508120724 | 8 | 226 | 0.0 | 16.1 | 0.00 | 0.00 | 0.00 | 47 | 1007.6 |
| 20260508120526 | 8 | 206 | 0.0 | 16.1 | 0.00 | 0.00 | 0.00 | 47 | 1007.6 |
| 20260508120326 | 8 | 209 | 0.0 | 16.1 | 0.00 | 0.00 | 0.00 | 46 | 1007.5 |
| 20260508120147 | 8 | 226 | 0.0 | 16.1 | 0.00 | 0.00 | 0.00 | 46 | 1007.5 |
| 20260508120135 | 8 | 190 | 0.0 | 11.3 | 0.00 | 0.00 | 0.00 | 46 | 1007.5 |
| 20260508120130 | 8 | 234 | 0.0 | 16.1 | 0.00 | 0.00 | 0.00 | 47 | 1007.6 |
| 20260508120109 | 8 | 234 | 0.0 | 16.1 | 0.00 | 0.00 | 0.00 | 47 | 1007.6 |
| 20260508115809 | 8 | 234 | 0.0 | 11.3 | 0.00 | 0.00 | 0.00 | 47 | 1007.5 |
| 20260508115738 | 8 | 190 | 0.0 | 11.3 | 0.00 | 0.00 | 0.00 | 46 | 1007.5 |
| 20260508115325 | 8 | 207 | 0.0 | 11.3 | 0.00 | 0.00 | 0.00 | 47 | 1007.5 |
| 20260508115126 | 8 | 203 | 0.0 | 17.7 | 0.00 | 0.00 | 0.00 | 47 | 1007.5 |
| 20260508115031 | 8 | 210 | 0.0 | 17.7 | 0.00 | 0.00 | 0.00 | 47 | 1007.6 |
| 20260508114924 | 8 | 202 | 0.0 | 17.7 | 0.00 | 0.00 | 0.00 | 46 | 1007.5 |
| 20260508114825 | 8 | 223 | 0.0 | 17.7 | 0.00 | 0.00 | 0.00 | 47 | 1007.5 |
| 20260508114810 | 8 | 209 | 0.0 | 17.7 | 0.00 | 0.00 | 0.00 | 47 | 1007.5 |
| 20260508114740 | 8 | 223 | 0.0 | 17.7 | 0.00 | 0.00 | 0.00 | 47 | 1007.5 |
| 20260508114429 | 8 | 183 | 0.0 | 17.7 | 0.00 | 0.00 | 0.00 | 47 | 1007.5 |
| 20260508114125 | 8 | 197 | 0.0 | 11.3 | 0.00 | 0.00 | 0.00 | 47 | 1007.5 |
| 20260508114031 | 8 | 212 | 0.0 | 11.3 | 0.00 | 0.00 | 0.00 | 47 | 1007.5 |
| 20260508113924 | 8 | 206 | 0.0 | 11.3 | 0.00 | 0.00 | 0.00 | 47 | 1007.6 |
| 20260508113827 | 8 | 183 | 0.0 | 11.3 | 0.00 | 0.00 | 0.00 | 47 | 1007.5 |
| 20260508113810 | 8 | 190 | 0.0 | 11.3 | 0.00 | 0.00 | 0.00 | 48 | 1007.6 |
| 20260508113738 | 8 | 183 | 0.0 | 11.3 | 0.00 | 0.00 | 0.00 | 47 | 1007.5 |
| 20260508113324 | 8 | 200 | 0.0 | 11.3 | 0.00 | 0.00 | 0.00 | 47 | 1007.5 |
| 20260508113125 | 8 | 196 | 0.0 | 11.3 | 0.00 | 0.00 | 0.00 | 47 | 1007.6 |
| 20260508113031 | 8 | 161 | 0.0 | 11.3 | 0.00 | 0.00 | 0.00 | 48 | 1007.5 |
| 20260508112924 | 8 | 212 | 0.0 | 11.3 | 0.00 | 0.00 | 0.00 | 47 | 1007.6 |
| 20260508112824 | 8 | 200 | 0.0 | 14.5 | 0.00 | 0.00 | 0.00 | 48 | 1007.6 |
| 20260508112809 | 8 | 217 | 0.0 | 11.3 | 0.00 | 0.00 | 0.00 | 47 | 1007.6 |
| 20260508112738 | 8 | 200 | 0.0 | 14.5 | 0.00 | 0.00 | 0.00 | 48 | 1007.6 |
| 20260508112326 | 8 | 203 | 0.0 | 16.1 | 0.00 | 0.00 | 0.00 | 48 | 1007.6 |
| 20260508112125 | 8 | 203 | 0.0 | 16.1 | 0.00 | 0.00 | 0.00 | 48 | 1007.6 |
| 20260508112027 | 8 | 195 | 0.0 | 16.1 | 0.00 | 0.00 | 0.00 | 48 | 1007.6 |
| 20260508111924 | 8 | 190 | 0.0 | 16.1 | 0.00 | 0.00 | 0.00 | 48 | 1007.6 |
| 20260508111825 | 7 | 188 | 0.0 | 16.1 | 0.00 | 0.00 | 0.00 | 48 | 1007.6 |
| 20260508111527 | 7 | 204 | 0.0 | 16.1 | 0.00 | 0.00 | 0.00 | 49 | 1007.5 |
| 20260508111325 | 7 | 219 | 0.0 | 11.3 | 0.00 | 0.00 | 0.00 | 49 | 1007.6 |
| 20260508111124 | 7 | 226 | 0.0 | 11.3 | 0.00 | 0.00 | 0.00 | 49 | 1007.5 |
| 20260508111033 | 7 | 235 | 0.0 | 11.3 | 0.00 | 0.00 | 0.00 | 49 | 1007.5 |
| 20260508110924 | 7 | 220 | 0.0 | 11.3 | 0.00 | 0.00 | 0.00 | 50 | 1007.6 |
| 20260508110726 | 7 | 197 | 0.0 | 11.3 | 0.00 | 0.00 | 0.00 | 50 | 1007.6 |
| 20260508110525 | 7 | 193 | 0.0 | 11.3 | 0.00 | 0.00 | 0.00 | 50 | 1007.6 |
| 20260508110325 | 7 | 200 | 0.0 | 9.7 | 0.00 | 0.00 | 0.00 | 50 | 1007.6 |
| 20260508110225 | 7 | 204 | 0.0 | 9.7 | 0.00 | 0.00 | 0.00 | 50 | 1007.6 |
| 20260508110025 | 7 | 175 | 0.0 | 9.7 | 0.00 | 0.00 | 0.00 | 50 | 1007.5 |
| 20260508105924 | 7 | 186 | 0.0 | 9.7 | 0.00 | 0.00 | 0.00 | 50 | 1007.6 |
| 20260508105724 | 7 | 200 | 0.0 | 9.7 | 0.00 | 0.00 | 0.00 | 51 | 1007.6 |
| 20260508105527 | 7 | 199 | 0.0 | 9.7 | 0.00 | 0.00 | 0.00 | 51 | 1007.5 |
| 20260508105324 | 7 | 200 | 0.0 | 6.4 | 0.00 | 0.00 | 0.00 | 51 | 1007.5 |
| 20260508105124 | 7 | 195 | 0.0 | 6.4 | 0.00 | 0.00 | 0.00 | 51 | 1007.5 |
| 20260508105015 | 7 | 204 | 0.0 | 6.4 | 0.00 | 0.00 | 0.00 | 51 | 1007.6 |
| 20260508104926 | 6 | 212 | 0.0 | 6.4 | 0.00 | 0.00 | 0.00 | 52 | 1007.6 |
| 20260508104725 | 6 | 199 | 0.0 | 6.4 | 0.00 | 0.00 | 0.00 | 52 | 1007.6 |
| 20260508104525 | 6 | 204 | 0.0 | 6.4 | 0.00 | 0.00 | 0.00 | 52 | 1007.6 |
| 20260508104510 | 6 | 204 | 0.0 | 6.4 | 0.00 | 0.00 | 0.00 | 52 | 1007.5 |
| 20260508104324 | 6 | 206 | 0.0 | 8.0 | 0.00 | 0.00 | 0.00 | 52 | 1007.6 |
| 20260508104124 | 6 | 206 | 0.0 | 8.0 | 0.00 | 0.00 | 0.00 | 52 | 1007.6 |
| 20260508104031 | 6 | 206 | 0.0 | 8.0 | 0.00 | 0.00 | 0.00 | 52 | 1007.8 |
| 20260508104012 | 6 | 206 | 0.0 | 8.0 | 0.00 | 0.00 | 0.00 | 52 | 1007.8 |
| 20260508103724 | 6 | 206 | 0.0 | 8.0 | 0.00 | 0.00 | 0.00 | 53 | 1007.6 |
| 20260508103525 | 6 | 206 | 0.0 | 8.0 | 0.00 | 0.00 | 0.00 | 53 | 1007.6 |
| 20260508103509 | 6 | 206 | 0.0 | 8.0 | 0.00 | 0.00 | 0.00 | 53 | 1007.5 |
| 20260508103325 | 6 | 192 | 0.0 | 3.2 | 0.00 | 0.00 | 0.00 | 53 | 1007.6 |
| 20260508103301 | 6 | 192 | 0.0 | 3.2 | 0.00 | 0.00 | 0.00 | 53 | 1007.6 |
| 20260508103238 | 6 | 192 | 0.0 | 3.2 | 0.00 | 0.00 | 0.00 | 53 | 1007.6 |
| 20260508102925 | 6 | 192 | 0.0 | 3.2 | 0.00 | 0.00 | 0.00 | 53 | 1007.6 |
| 20260508102725 | 6 | 192 | 0.0 | 3.2 | 0.00 | 0.00 | 0.00 | 53 | 1007.8 |
| 20260508102504 | 6 | 192 | 0.0 | 3.2 | 0.00 | 0.00 | 0.00 | 53 | 1007.6 |
| 20260508102425 | 6 | 190 | 0.0 | 3.2 | 0.00 | 0.00 | 0.00 | 53 | 1007.6 |
| 20260508102306 | 6 | 190 | 0.0 | 1.6 | 0.00 | 0.00 | 0.00 | 53 | 1007.8 |
| 20260508102241 | 6 | 190 | 0.0 | 1.6 | 0.00 | 0.00 | 0.00 | 54 | 1007.6 |
| 20260508101925 | 6 | 190 | 0.0 | 1.6 | 0.00 | 0.00 | 0.00 | 53 | 1007.8 |
| 20260508101724 | 6 | 190 | 0.0 | 1.6 | 0.00 | 0.00 | 0.00 | 53 | 1007.8 |
| 20260508101525 | 6 | 190 | 0.0 | 3.2 | 0.00 | 0.00 | 0.00 | 53 | 1007.6 |
| 20260508101503 | 6 | 190 | 0.0 | 3.2 | 0.00 | 0.00 | 0.00 | 53 | 1007.8 |
| 20260508101325 | 6 | 190 | 0.0 | 3.2 | 0.00 | 0.00 | 0.00 | 54 | 1007.8 |
| 20260508101303 | 6 | 190 | 0.0 | 3.2 | 0.00 | 0.00 | 0.00 | 54 | 1007.9 |
| 20260508101237 | 6 | 190 | 0.0 | 3.2 | 0.00 | 0.00 | 0.00 | 54 | 1007.8 |
| 20260508100922 | 6 | 190 | 0.0 | 3.2 | 0.00 | 0.00 | 0.00 | 53 | 1007.9 |
| 20260508100721 | 6 | 190 | 0.0 | 3.2 | 0.00 | 0.00 | 0.00 | 53 | 1007.8 |
| 20260508100502 | 6 | 190 | 0.0 | 3.2 | 0.00 | 0.00 | 0.00 | 53 | 1007.8 |
| 20260508100320 | 6 | 190 | 0.0 | 3.2 | 0.00 | 0.00 | 0.00 | 53 | 1007.9 |
| 20260508100122 | 6 | 190 | 0.0 | 3.2 | 0.00 | 0.00 | 0.00 | 53 | 1007.9 |
| 20260508100006 | 6 | 190 | 0.0 | 3.2 | 0.00 | 0.00 | 0.00 | 53 | 1007.6 |
| 20260508095923 | 6 | 190 | 0.0 | 3.2 | 0.00 | 0.00 | 0.00 | 53 | 1007.6 |
| 20260508095809 | 6 | 190 | 0.0 | 1.6 | 0.00 | 0.00 | 0.00 | 53 | 1007.9 |
| 20260508095506 | 6 | 190 | 0.0 | 1.6 | 0.00 | 0.00 | 0.00 | 53 | 1007.8 |
| 20260508095431 | 6 | 190 | 0.0 | 1.6 | 0.00 | 0.00 | 0.00 | 53 | 1007.8 |
| 20260508095307 | 6 | 190 | 0.0 | 1.6 | 0.00 | 0.00 | 0.00 | 53 | 1007.8 |
| 20260508095110 | 6 | 190 | 0.0 | 1.6 | 0.00 | 0.00 | 0.00 | 53 | 1007.8 |
| 20260508094935 | 6 | 190 | 0.0 | 1.6 | 0.00 | 0.00 | 0.00 | 53 | 1007.8 |
| 20260508094910 | 6 | 190 | 0.0 | 1.6 | 0.00 | 0.00 | 0.00 | 53 | 1007.9 |
| 20260508094711 | 6 | 190 | 0.0 | 1.6 | 0.00 | 0.00 | 0.00 | 53 | 1007.9 |
| 20260508094509 | 6 | 190 | 0.0 | 1.6 | 0.00 | 0.00 | 0.00 | 52 | 1007.9 |
| 20260508094436 | 6 | 190 | 0.0 | 1.6 | 0.00 | 0.00 | 0.00 | 53 | 1007.9 |
| 20260508094308 | 6 | 190 | 0.0 | 1.6 | 0.00 | 0.00 | 0.00 | 52 | 1007.9 |
| 20260508094204 | 6 | 190 | 0.0 | 1.6 | 0.00 | 0.00 | 0.00 | 52 | 1007.9 |
| 20260508093909 | 6 | 190 | 0.0 | 1.6 | 0.00 | 0.00 | 0.00 | 52 | 1007.9 |
| 20260508093709 | 6 | 190 | 0.0 | 3.2 | 0.00 | 0.00 | 0.00 | 52 | 1007.9 |
| 20260508093509 | 6 | 190 | 0.0 | 3.2 | 0.00 | 0.00 | 0.00 | 52 | 1007.9 |
| 20260508093437 | 6 | 190 | 0.0 | 3.2 | 0.00 | 0.00 | 0.00 | 52 | 1007.9 |
| 20260508093306 | 6 | 190 | 0.0 | 3.2 | 0.00 | 0.00 | 0.00 | 52 | 1007.9 |
| 20260508093107 | 6 | 190 | 0.0 | 3.2 | 0.00 | 0.00 | 0.00 | 52 | 1007.9 |
| 20260508092934 | 6 | 190 | 0.0 | 4.8 | 0.00 | 0.00 | 0.00 | 52 | 1007.9 |
| 20260508092905 | 6 | 190 | 0.0 | 4.8 | 0.00 | 0.00 | 0.00 | 52 | 1007.9 |
| 20260508092702 | 6 | 190 | 0.0 | 4.8 | 0.00 | 0.00 | 0.00 | 52 | 1008.0 |
| 20260508092435 | 6 | 190 | 0.0 | 6.4 | 0.00 | 0.00 | 0.00 | 52 | 1008.0 |
| 20260508092301 | 6 | 190 | 0.0 | 6.4 | 0.00 | 0.00 | 0.00 | 51 | 1007.9 |
| 20260508092102 | 7 | 190 | 0.0 | 6.4 | 0.00 | 0.00 | 0.00 | 51 | 1007.9 |
| 20260508091929 | 7 | 190 | 0.0 | 6.4 | 0.00 | 0.00 | 0.00 | 52 | 1007.9 |
| 20260508091901 | 7 | 190 | 0.0 | 6.4 | 0.00 | 0.00 | 0.00 | 52 | 1007.9 |
| 20260508091801 | 7 | 190 | 0.0 | 6.4 | 0.00 | 0.00 | 0.00 | 52 | 1007.9 |
| 20260508091427 | 7 | 193 | 0.0 | 4.8 | 0.00 | 0.00 | 0.00 | 52 | 1007.9 |
| 20260508091258 | 7 | 193 | 0.0 | 4.8 | 0.00 | 0.00 | 0.00 | 52 | 1007.9 |
| 20260508091056 | 7 | 193 | 0.0 | 6.4 | 0.00 | 0.00 | 0.00 | 51 | 1007.9 |
| 20260508090925 | 7 | 193 | 0.0 | 6.4 | 0.00 | 0.00 | 0.00 | 51 | 1007.9 |
| 20260508090856 | 7 | 193 | 0.0 | 6.4 | 0.00 | 0.00 | 0.00 | 51 | 1008.0 |